Wetterdaten: Montag, 13.03.2023
Datum Zeit Temp. Aussen Temp. o. S. Temp +5cm Feuchte Auss Luftdruck Regen Sonnenschein Regendauer Solar Windben Empfang
13.03.2023 00:00 10,6 C 10,0 C 6,1 C 81 % 1006,0 hPa 0,0 l/m 0 min 0 min 0 W/m 19,3 km/h (3 Bft) 95,74 %
13.03.2023 00:02 10,6 C 10,0 C 6,1 C 82 % 1006,0 hPa 0,0 l/m 0 min 0 min 0 W/m 25,7 km/h (4 Bft) 95,00 %
13.03.2023 00:04 10,6 C 10,0 C 6,1 C 82 % 1006,0 hPa 0,0 l/m 0 min 0 min 0 W/m 25,7 km/h (4 Bft) 93,62 %
13.03.2023 00:07 10,6 C 10,0 C 6,1 C 82 % 1005,9 hPa 0,0 l/m 0 min 0 min 0 W/m 22,5 km/h (4 Bft) 95,71 %
13.03.2023 00:08 10,6 C 10,0 C 6,1 C 82 % 1005,9 hPa 0,0 l/m 0 min 0 min 0 W/m 12,9 km/h (3 Bft) 95,83 %
13.03.2023 00:12 10,6 C 10,0 C 6,1 C 82 % 1005,8 hPa 0,0 l/m 0 min 0 min 0 W/m 29,0 km/h (5 Bft) 96,23 %
13.03.2023 00:14 10,6 C 10,0 C 6,1 C 82 % 1005,8 hPa 0,0 l/m 0 min 0 min 0 W/m 19,3 km/h (3 Bft) 93,48 %
13.03.2023 00:16 10,6 C 10,0 C 6,1 C 82 % 1005,7 hPa 0,0 l/m 0 min 0 min 0 W/m 22,5 km/h (4 Bft) 95,74 %
13.03.2023 00:18 10,6 C 10,0 C 6,1 C 82 % 1005,7 hPa 0,0 l/m 0 min 0 min 0 W/m 32,2 km/h (5 Bft) 95,74 %
13.03.2023 00:20 10,6 C 10,0 C 6,1 C 82 % 1005,5 hPa 0,0 l/m 0 min 0 min 0 W/m 19,3 km/h (3 Bft) 97,87 %
13.03.2023 00:22 10,6 C 10,0 C 6,1 C 82 % 1005,5 hPa 0,0 l/m 0 min 0 min 0 W/m 25,7 km/h (4 Bft) 95,74 %
13.03.2023 00:24 10,7 C 10,0 C 6,1 C 82 % 1005,5 hPa 0,0 l/m 0 min 0 min 0 W/m 29,0 km/h (5 Bft) 97,87 %
13.03.2023 00:26 10,7 C 10,0 C 6,1 C 82 % 1005,5 hPa 0,0 l/m 0 min 0 min 0 W/m 22,5 km/h (4 Bft) 97,87 %
13.03.2023 00:28 10,7 C 10,0 C 6,1 C 82 % 1005,5 hPa 0,0 l/m 0 min 0 min 0 W/m 38,6 km/h (5 Bft) 95,65 %
13.03.2023 00:30 10,7 C 10,0 C 6,1 C 82 % 1005,4 hPa 0,0 l/m 0 min 0 min 0 W/m 19,3 km/h (3 Bft) 97,87 %
13.03.2023 00:32 10,7 C 10,0 C 6,1 C 82 % 1005,4 hPa 0,0 l/m 0 min 0 min 0 W/m 29,0 km/h (5 Bft) 97,87 %
13.03.2023 00:34 10,8 C 10,0 C 6,1 C 83 % 1005,4 hPa 0,0 l/m 0 min 0 min 0 W/m 32,2 km/h (5 Bft) 97,87 %
13.03.2023 00:36 10,8 C 10,0 C 6,1 C 83 % 1005,3 hPa 0,0 l/m 0 min 0 min 0 W/m 41,8 km/h (6 Bft) 97,87 %
13.03.2023 00:38 10,8 C 10,0 C 6,1 C 82 % 1005,3 hPa 0,0 l/m 0 min 0 min 0 W/m 16,1 km/h (3 Bft) 95,74 %
13.03.2023 00:40 10,8 C 10,0 C 6,1 C 82 % 1005,4 hPa 0,0 l/m 0 min 0 min 0 W/m 19,3 km/h (3 Bft) 95,74 %
13.03.2023 00:42 10,8 C 10,0 C 6,1 C 82 % 1005,2 hPa 0,0 l/m 0 min 0 min 0 W/m 25,7 km/h (4 Bft) 100,00 %
13.03.2023 00:44 10,9 C 10,0 C 6,1 C 83 % 1005,2 hPa 0,0 l/m 0 min 0 min 0 W/m 22,5 km/h (4 Bft) 100,00 %
13.03.2023 00:46 10,9 C 10,0 C 6,1 C 83 % 1005,1 hPa 0,0 l/m 0 min 0 min 0 W/m 19,3 km/h (3 Bft) 95,74 %
13.03.2023 00:48 10,9 C 10,0 C 6,1 C 83 % 1005,1 hPa 0,0 l/m 0 min 0 min 0 W/m 16,1 km/h (3 Bft) 94,00 %
13.03.2023 00:50 10,9 C 10,0 C 6,1 C 83 % 1005,0 hPa 0,0 l/m 0 min 0 min 0 W/m 22,5 km/h (4 Bft) 97,83 %
13.03.2023 00:52 10,9 C 10,0 C 6,1 C 83 % 1005,0 hPa 0,0 l/m 0 min 2 min 0 W/m 19,3 km/h (3 Bft) 97,87 %
13.03.2023 00:54 10,9 C 10,0 C 6,1 C 83 % 1004,9 hPa 0,0 l/m 0 min 2 min 0 W/m 22,5 km/h (4 Bft) 97,87 %
13.03.2023 00:56 11,0 C 10,0 C 6,1 C 83 % 1004,8 hPa 0,0 l/m 0 min 0 min 0 W/m 29,0 km/h (5 Bft) 95,74 %
13.03.2023 00:58 11,0 C 10,0 C 6,1 C 83 % 1004,8 hPa 0,0 l/m 0 min 0 min 0 W/m 29,0 km/h (5 Bft) 97,73 %
13.03.2023 01:00 11,0 C 10,0 C 6,1 C 83 % 1004,7 hPa 0,0 l/m 0 min 2 min 0 W/m 25,7 km/h (4 Bft) 97,87 %
13.03.2023 01:02 11,1 C 10,0 C 6,1 C 83 % 1004,6 hPa 0,0 l/m 0 min 0 min 0 W/m 25,7 km/h (4 Bft) 95,74 %
13.03.2023 01:04 11,1 C 10,0 C 5,6 C 83 % 1004,6 hPa 0,0 l/m 0 min 0 min 0 W/m 12,9 km/h (3 Bft) 97,87 %
13.03.2023 01:06 11,1 C 10,0 C 5,6 C 83 % 1004,5 hPa 0,0 l/m 0 min 0 min 0 W/m 16,1 km/h (3 Bft) 96,55 %
13.03.2023 01:08 11,1 C 10,0 C 6,1 C 83 % 1004,5 hPa 0,0 l/m 0 min 0 min 0 W/m 32,2 km/h (5 Bft) 97,14 %
13.03.2023 01:10 11,1 C 10,0 C 6,1 C 83 % 1004,5 hPa 0,0 l/m 0 min 0 min 0 W/m 19,3 km/h (3 Bft) 95,74 %
13.03.2023 01:12 11,1 C 10,0 C 6,1 C 83 % 1004,5 hPa 0,0 l/m 0 min 0 min 0 W/m 12,9 km/h (3 Bft) 97,87 %
13.03.2023 01:14 11,1 C 10,0 C 6,1 C 84 % 1004,5 hPa 0,0 l/m 0 min 0 min 0 W/m 22,5 km/h (4 Bft) 97,87 %
13.03.2023 01:16 11,1 C 10,0 C 6,1 C 84 % 1004,3 hPa 0,0 l/m 0 min 0 min 0 W/m 16,1 km/h (3 Bft) 91,49 %
13.03.2023 01:18 11,1 C 10,0 C 6,1 C 84 % 1004,3 hPa 0,0 l/m 0 min 0 min 0 W/m 22,5 km/h (4 Bft) 97,87 %
13.03.2023 01:20 11,1 C 10,6 C 6,1 C 84 % 1004,2 hPa 0,0 l/m 0 min 0 min 0 W/m 22,5 km/h (4 Bft) 97,87 %
13.03.2023 01:22 11,1 C 10,6 C 6,1 C 84 % 1004,2 hPa 0,0 l/m 0 min 0 min 0 W/m 19,3 km/h (3 Bft) 97,87 %
13.03.2023 01:24 11,1 C 10,6 C 6,1 C 84 % 1004,1 hPa 0,0 l/m 0 min 0 min 0 W/m 16,1 km/h (3 Bft) 97,87 %
13.03.2023 01:26 11,1 C 10,6 C 6,1 C 84 % 1004,1 hPa 0,0 l/m 0 min 2 min 0 W/m 16,1 km/h (3 Bft) 97,87 %
13.03.2023 01:28 11,1 C 10,0 C 5,6 C 84 % 1004,1 hPa 0,0 l/m 0 min 2 min 0 W/m 19,3 km/h (3 Bft) 100,00 %
13.03.2023 01:30 11,1 C 10,0 C 5,6 C 84 % 1004,1 hPa 0,0 l/m 0 min 2 min 0 W/m 19,3 km/h (3 Bft) 100,00 %
13.03.2023 01:32 11,1 C 10,0 C 5,6 C 85 % 1004,0 hPa 0,0 l/m 0 min 0 min 0 W/m 19,3 km/h (3 Bft) 100,00 %
13.03.2023 01:34 11,1 C 10,0 C 5,6 C 85 % 1004,0 hPa 0,0 l/m 0 min 0 min 0 W/m 19,3 km/h (3 Bft) 97,87 %
13.03.2023 01:36 11,1 C 10,0 C 5,6 C 85 % 1004,0 hPa 0,0 l/m 0 min 2 min 0 W/m 16,1 km/h (3 Bft) 97,87 %
13.03.2023 01:38 11,1 C 10,0 C 5,6 C 85 % 1004,0 hPa 0,0 l/m 0 min 2 min 0 W/m 6,4 km/h (2 Bft) 100,00 %
13.03.2023 01:40 11,1 C 10,0 C 5,0 C 85 % 1003,9 hPa 0,0 l/m 0 min 2 min 0 W/m 12,9 km/h (3 Bft) 53,33 %
13.03.2023 01:42 11,0 C 10,0 C 5,0 C 85 % 1003,9 hPa 0,0 l/m 0 min 2 min 0 W/m 16,1 km/h (3 Bft) 100,00 %
13.03.2023 01:44 11,0 C 10,0 C 5,0 C 86 % 1003,9 hPa 0,0 l/m 0 min 2 min 0 W/m 12,9 km/h (3 Bft) 97,83 %
13.03.2023 01:46 10,9 C 10,0 C 5,0 C 86 % 1003,8 hPa 0,0 l/m 0 min 2 min 0 W/m 9,7 km/h (2 Bft) 95,74 %
13.03.2023 01:48 10,9 C 10,0 C 5,0 C 86 % 1003,8 hPa 0,0 l/m 0 min 2 min 0 W/m 19,3 km/h (3 Bft) 95,74 %
13.03.2023 01:50 10,9 C 9,4 C 5,0 C 87 % 1003,7 hPa 0,0 l/m 0 min 2 min 0 W/m 12,9 km/h (3 Bft) 97,87 %
13.03.2023 01:52 10,9 C 9,4 C 5,0 C 87 % 1003,7 hPa 0,0 l/m 0 min 2 min 0 W/m 12,9 km/h (3 Bft) 91,49 %
13.03.2023 01:54 10,8 C 9,4 C 5,0 C 87 % 1003,7 hPa 0,0 l/m 0 min 0 min 0 W/m 16,1 km/h (3 Bft) 97,87 %
13.03.2023 01:56 10,8 C 9,4 C 5,0 C 87 % 1003,6 hPa 0,0 l/m 0 min 0 min 0 W/m 19,3 km/h (3 Bft) 97,67 %
13.03.2023 01:58 10,8 C 9,4 C 5,0 C 88 % 1003,5 hPa 0,0 l/m 0 min 0 min 0 W/m 12,9 km/h (3 Bft) 97,87 %
13.03.2023 02:00 10,7 C 9,4 C 5,0 C 88 % 1003,5 hPa 0,0 l/m 0 min 0 min 0 W/m 19,3 km/h (3 Bft) 97,87 %
13.03.2023 02:02 10,7 C 10,0 C 5,0 C 88 % 1003,5 hPa 0,0 l/m 0 min 0 min 0 W/m 16,1 km/h (3 Bft) 97,87 %
13.03.2023 02:04 10,7 C 10,0 C 5,0 C 88 % 1003,4 hPa 0,0 l/m 0 min 0 min 0 W/m 12,9 km/h (3 Bft) 95,92 %
13.03.2023 02:06 10,7 C 10,0 C 5,0 C 88 % 1003,4 hPa 0,0 l/m 0 min 0 min 0 W/m 19,3 km/h (3 Bft) 97,92 %
13.03.2023 02:08 10,7 C 10,0 C 5,0 C 88 % 1003,3 hPa 0,0 l/m 0 min 0 min 0 W/m 12,9 km/h (3 Bft) 97,87 %
13.03.2023 02:10 10,7 C 10,0 C 5,0 C 88 % 1003,3 hPa 0,0 l/m 0 min 0 min 0 W/m 12,9 km/h (3 Bft) 95,65 %
13.03.2023 02:12 10,7 C 10,0 C 5,6 C 89 % 1003,3 hPa 0,0 l/m 0 min 0 min 0 W/m 16,1 km/h (3 Bft) 97,87 %
13.03.2023 02:14 10,7 C 10,0 C 5,6 C 89 % 1003,3 hPa 0,0 l/m 0 min 0 min 0 W/m 16,1 km/h (3 Bft) 97,62 %
13.03.2023 02:16 10,7 C 10,0 C 5,6 C 89 % 1003,1 hPa 0,0 l/m 0 min 0 min 0 W/m 12,9 km/h (3 Bft) 93,48 %
13.03.2023 02:18 10,7 C 10,0 C 5,6 C 89 % 1003,1 hPa 0,0 l/m 0 min 0 min 0 W/m 22,5 km/h (4 Bft) 100,00 %
13.03.2023 02:20 10,7 C 10,0 C 5,6 C 89 % 1003,2 hPa 0,0 l/m 0 min 0 min 0 W/m 19,3 km/h (3 Bft) 100,00 %
13.03.2023 02:22 10,7 C 10,0 C 5,6 C 89 % 1003,1 hPa 0,0 l/m 0 min 0 min 0 W/m 22,5 km/h (4 Bft) 97,87 %
13.03.2023 02:24 10,7 C 10,0 C 5,6 C 89 % 1003,2 hPa 0,0 l/m 0 min 0 min 0 W/m 22,5 km/h (4 Bft) 97,87 %
13.03.2023 02:26 10,8 C 10,0 C 5,6 C 89 % 1003,2 hPa 0,0 l/m 0 min 0 min 0 W/m 38,6 km/h (5 Bft) 100,00 %
13.03.2023 02:28 10,8 C 10,0 C 5,6 C 89 % 1003,1 hPa 0,0 l/m 0 min 0 min 0 W/m 29,0 km/h (5 Bft) 95,74 %
13.03.2023 02:30 10,8 C 10,0 C 5,6 C 89 % 1003,1 hPa 0,0 l/m 0 min 0 min 0 W/m 19,3 km/h (3 Bft) 97,87 %
13.03.2023 02:32 10,8 C 10,0 C 5,6 C 89 % 1003,1 hPa 0,0 l/m 0 min 0 min 0 W/m 25,7 km/h (4 Bft) 100,00 %
13.03.2023 02:34 10,8 C 9,4 C 5,6 C 89 % 1003,0 hPa 0,2 l/m 0 min 2 min 0 W/m 19,3 km/h (3 Bft) 100,00 %
13.03.2023 02:36 10,8 C 9,4 C 5,6 C 90 % 1003,0 hPa 0,0 l/m 0 min 2 min 0 W/m 22,5 km/h (4 Bft) 100,00 %
13.03.2023 02:38 10,8 C 9,4 C 5,6 C 90 % 1002,9 hPa 0,0 l/m 0 min 2 min 0 W/m 35,4 km/h (5 Bft) 100,00 %
13.03.2023 02:40 10,8 C 8,9 C 5,6 C 90 % 1002,9 hPa 0,0 l/m 0 min 2 min 0 W/m 19,3 km/h (3 Bft) 100,00 %
13.03.2023 02:42 10,7 C 8,9 C 5,6 C 91 % 1002,9 hPa 0,0 l/m 0 min 2 min 0 W/m 35,4 km/h (5 Bft) 100,00 %
13.03.2023 02:44 10,7 C 8,9 C 5,6 C 91 % 1002,8 hPa 0,2 l/m 0 min 2 min 0 W/m 16,1 km/h (3 Bft) 100,00 %
13.03.2023 02:46 10,7 C 8,9 C 5,6 C 91 % 1002,7 hPa 0,0 l/m 0 min 2 min 0 W/m 25,7 km/h (4 Bft) 100,00 %
13.03.2023 02:48 10,6 C 8,9 C 5,6 C 92 % 1002,7 hPa 0,0 l/m 0 min 2 min 0 W/m 22,5 km/h (4 Bft) 97,83 %
13.03.2023 02:50 10,6 C 8,9 C 5,6 C 92 % 1002,6 hPa 0,0 l/m 0 min 0 min 0 W/m 25,7 km/h (4 Bft) 97,87 %
13.03.2023 02:52 10,6 C 8,9 C 5,6 C 92 % 1002,5 hPa 0,0 l/m 0 min 0 min 0 W/m 16,1 km/h (3 Bft) 97,87 %
13.03.2023 02:54 10,5 C 8,9 C 5,6 C 92 % 1002,5 hPa 0,2 l/m 0 min 0 min 0 W/m 19,3 km/h (3 Bft) 95,74 %
13.03.2023 02:56 10,4 C 8,9 C 5,6 C 93 % 1002,5 hPa 0,0 l/m 0 min 0 min 0 W/m 22,5 km/h (4 Bft) 91,49 %
13.03.2023 02:58 10,4 C 8,9 C 5,6 C 93 % 1002,5 hPa 0,0 l/m 0 min 2 min 0 W/m 19,3 km/h (3 Bft) 97,87 %
13.03.2023 03:00 10,4 C 8,9 C 5,6 C 93 % 1002,3 hPa 0,0 l/m 0 min 2 min 0 W/m 16,1 km/h (3 Bft) 97,87 %
13.03.2023 03:02 10,4 C 8,9 C 5,6 C 93 % 1002,3 hPa 0,0 l/m 0 min 0 min 0 W/m 22,5 km/h (4 Bft) 97,83 %
13.03.2023 03:04 10,4 C 8,9 C 5,6 C 94 % 1002,3 hPa 0,0 l/m 0 min 2 min 0 W/m 19,3 km/h (3 Bft) 95,83 %
13.03.2023 03:06 10,3 C 8,9 C 5,6 C 94 % 1002,2 hPa 0,0 l/m 0 min 2 min 0 W/m 25,7 km/h (4 Bft) 97,87 %
13.03.2023 03:08 10,3 C 8,9 C 5,6 C 94 % 1002,2 hPa 0,0 l/m 0 min 2 min 0 W/m 32,2 km/h (5 Bft) 97,87 %
13.03.2023 03:10 10,3 C 8,9 C 5,6 C 94 % 1002,1 hPa 0,0 l/m 0 min 2 min 0 W/m 25,7 km/h (4 Bft) 97,87 %
13.03.2023 03:12 10,3 C 8,9 C 5,6 C 94 % 1002,1 hPa 0,0 l/m 0 min 2 min 0 W/m 19,3 km/h (3 Bft) 97,14 %
13.03.2023 03:14 10,3 C 8,9 C 5,6 C 94 % 1002,1 hPa 0,0 l/m 0 min 2 min 0 W/m 19,3 km/h (3 Bft) 95,74 %
13.03.2023 03:16 10,3 C 8,9 C 5,6 C 94 % 1001,9 hPa 0,2 l/m 0 min 2 min 0 W/m 12,9 km/h (3 Bft) 94,55 %
13.03.2023 03:18 10,3 C 8,9 C 5,6 C 95 % 1002,0 hPa 0,0 l/m 0 min 2 min 0 W/m 19,3 km/h (3 Bft) 95,74 %
13.03.2023 03:20 10,3 C 8,9 C 5,6 C 95 % 1001,9 hPa 0,0 l/m 0 min 2 min 0 W/m 16,1 km/h (3 Bft) 95,74 %
13.03.2023 03:22 10,3 C 8,9 C 5,6 C 95 % 1001,9 hPa 0,0 l/m 0 min 2 min 0 W/m 19,3 km/h (3 Bft) 95,65 %
13.03.2023 03:24 10,3 C 8,9 C 5,6 C 95 % 1002,0 hPa 0,0 l/m 0 min 2 min 0 W/m 19,3 km/h (3 Bft) 93,62 %
13.03.2023 03:26 10,3 C 9,4 C 5,6 C 95 % 1001,9 hPa 0,0 l/m 0 min 2 min 0 W/m 19,3 km/h (3 Bft) 95,74 %
13.03.2023 03:28 10,3 C 9,4 C 5,6 C 95 % 1001,9 hPa 0,0 l/m 0 min 2 min 0 W/m 22,5 km/h (4 Bft) 93,62 %
13.03.2023 03:30 10,3 C 9,4 C 5,6 C 95 % 1001,8 hPa 0,2 l/m 0 min 2 min 0 W/m 19,3 km/h (3 Bft) 93,62 %
13.03.2023 03:32 10,3 C 9,4 C 5,6 C 95 % 1001,8 hPa 0,0 l/m 0 min 2 min 0 W/m 25,7 km/h (4 Bft) 93,62 %
13.03.2023 03:34 10,3 C 9,4 C 5,6 C 95 % 1001,7 hPa 0,0 l/m 0 min 2 min 0 W/m 19,3 km/h (3 Bft) 95,74 %
13.03.2023 03:36 10,3 C 9,4 C 5,6 C 95 % 1001,6 hPa 0,0 l/m 0 min 0 min 0 W/m 32,2 km/h (5 Bft) 95,74 %
13.03.2023 03:38 10,3 C 9,4 C 5,6 C 95 % 1001,6 hPa 0,0 l/m 0 min 0 min 0 W/m 22,5 km/h (4 Bft) 93,62 %
13.03.2023 03:40 10,3 C 9,4 C 5,6 C 96 % 1001,6 hPa 0,0 l/m 0 min 0 min 0 W/m 25,7 km/h (4 Bft) 95,74 %
13.03.2023 03:42 10,3 C 9,4 C 5,6 C 96 % 1001,5 hPa 0,0 l/m 0 min 0 min 0 W/m 19,3 km/h (3 Bft) 95,74 %
13.03.2023 03:44 10,3 C 9,4 C 5,6 C 96 % 1001,6 hPa 0,0 l/m 0 min 0 min 0 W/m 19,3 km/h (3 Bft) 95,74 %
13.03.2023 03:46 10,3 C 9,4 C 5,6 C 96 % 1001,4 hPa 0,0 l/m 0 min 0 min 0 W/m 22,5 km/h (4 Bft) 95,74 %
13.03.2023 03:48 10,3 C 9,4 C 5,6 C 96 % 1001,5 hPa 0,0 l/m 0 min 0 min 0 W/m 22,5 km/h (4 Bft) 93,48 %
13.03.2023 03:50 10,4 C 9,4 C 5,6 C 96 % 1001,5 hPa 0,0 l/m 0 min 0 min 0 W/m 29,0 km/h (5 Bft) 95,74 %
13.03.2023 03:52 10,4 C 9,4 C 5,6 C 96 % 1001,4 hPa 0,0 l/m 0 min 0 min 0 W/m 22,5 km/h (4 Bft) 95,74 %
13.03.2023 03:54 10,4 C 9,4 C 5,6 C 96 % 1001,4 hPa 0,0 l/m 0 min 0 min 0 W/m 22,5 km/h (4 Bft) 93,62 %
13.03.2023 03:56 10,4 C 9,4 C 5,6 C 96 % 1001,3 hPa 0,0 l/m 0 min 0 min 0 W/m 19,3 km/h (3 Bft) 95,74 %
13.03.2023 03:58 10,4 C 9,4 C 5,6 C 96 % 1001,2 hPa 0,0 l/m 0 min 0 min 0 W/m 25,7 km/h (4 Bft) 97,87 %
13.03.2023 04:00 10,4 C 9,4 C 6,1 C 96 % 1001,1 hPa 0,0 l/m 0 min 0 min 0 W/m 22,5 km/h (4 Bft) 98,00 %
13.03.2023 04:02 10,5 C 9,4 C 6,1 C 96 % 1001,0 hPa 0,0 l/m 0 min 0 min 0 W/m 12,9 km/h (3 Bft) 100,00 %
13.03.2023 04:04 10,5 C 9,4 C 6,1 C 96 % 1000,9 hPa 0,0 l/m 0 min 0 min 0 W/m 12,9 km/h (3 Bft) 100,00 %
13.03.2023 04:06 10,5 C 9,4 C 6,1 C 96 % 1000,9 hPa 0,0 l/m 0 min 0 min 0 W/m 12,9 km/h (3 Bft) 95,74 %
13.03.2023 04:08 10,5 C 9,4 C 6,1 C 96 % 1000,9 hPa 0,0 l/m 0 min 0 min 0 W/m 25,7 km/h (4 Bft) 97,87 %
13.03.2023 04:10 10,5 C 9,4 C 6,1 C 96 % 1001,0 hPa 0,0 l/m 0 min 0 min 0 W/m 19,3 km/h (3 Bft) 97,87 %
13.03.2023 04:12 10,6 C 9,4 C 6,1 C 96 % 1001,1 hPa 0,0 l/m 0 min 0 min 0 W/m 19,3 km/h (3 Bft) 100,00 %
13.03.2023 04:14 10,6 C 9,4 C 6,1 C 96 % 1000,9 hPa 0,0 l/m 0 min 0 min 0 W/m 19,3 km/h (3 Bft) 100,00 %
13.03.2023 04:16 10,6 C 10,0 C 6,1 C 96 % 1001,0 hPa 0,0 l/m 0 min 0 min 0 W/m 25,7 km/h (4 Bft) 100,00 %
13.03.2023 04:18 10,6 C 10,0 C 6,1 C 96 % 1001,0 hPa 0,0 l/m 0 min 0 min 0 W/m 25,7 km/h (4 Bft) 100,00 %
13.03.2023 04:20 10,7 C 10,0 C 6,1 C 96 % 1000,9 hPa 0,0 l/m 0 min 0 min 0 W/m 19,3 km/h (3 Bft) 97,87 %
13.03.2023 04:22 10,7 C 10,0 C 6,1 C 96 % 1000,9 hPa 0,0 l/m 0 min 0 min 0 W/m 19,3 km/h (3 Bft) 97,87 %
13.03.2023 04:24 10,7 C 10,0 C 6,1 C 96 % 1001,0 hPa 0,0 l/m 0 min 0 min 0 W/m 25,7 km/h (4 Bft) 97,87 %
13.03.2023 04:26 10,8 C 10,0 C 6,1 C 96 % 1000,8 hPa 0,0 l/m 0 min 0 min 0 W/m 41,8 km/h (6 Bft) 97,87 %
13.03.2023 04:28 10,8 C 10,0 C 6,1 C 96 % 1000,8 hPa 0,0 l/m 0 min 0 min 0 W/m 25,7 km/h (4 Bft) 100,00 %
13.03.2023 04:30 10,8 C 10,0 C 6,1 C 96 % 1000,9 hPa 0,0 l/m 0 min 0 min 0 W/m 25,7 km/h (4 Bft) 100,00 %
13.03.2023 04:32 10,9 C 10,0 C 6,1 C 96 % 1000,9 hPa 0,0 l/m 0 min 0 min 0 W/m 54,7 km/h (7 Bft) 97,87 %
13.03.2023 04:34 10,9 C 10,6 C 6,7 C 96 % 1000,9 hPa 0,0 l/m 0 min 0 min 0 W/m 29,0 km/h (5 Bft) 100,00 %
13.03.2023 04:36 11,1 C 10,6 C 6,7 C 96 % 1000,9 hPa 0,0 l/m 0 min 0 min 0 W/m 35,4 km/h (5 Bft) 100,00 %
13.03.2023 04:38 11,1 C 10,6 C 6,7 C 96 % 1000,8 hPa 0,0 l/m 0 min 0 min 0 W/m 32,2 km/h (5 Bft) 100,00 %
13.03.2023 04:40 11,1 C 10,6 C 6,7 C 96 % 1000,8 hPa 0,0 l/m 0 min 0 min 0 W/m 25,7 km/h (4 Bft) 100,00 %
13.03.2023 04:42 11,2 C 10,6 C 6,7 C 96 % 1000,8 hPa 0,0 l/m 0 min 0 min 0 W/m 19,3 km/h (3 Bft) 97,87 %
13.03.2023 04:44 11,2 C 10,6 C 6,7 C 96 % 1000,8 hPa 0,0 l/m 0 min 0 min 0 W/m 32,2 km/h (5 Bft) 100,00 %
13.03.2023 04:46 11,2 C 10,6 C 6,7 C 96 % 1000,8 hPa 0,0 l/m 0 min 0 min 0 W/m 25,7 km/h (4 Bft) 100,00 %
13.03.2023 04:48 11,3 C 10,6 C 6,7 C 96 % 1001,0 hPa 0,0 l/m 0 min 0 min 0 W/m 38,6 km/h (5 Bft) 97,87 %
13.03.2023 04:50 11,3 C 10,6 C 6,7 C 95 % 1001,0 hPa 0,0 l/m 0 min 0 min 0 W/m 22,5 km/h (4 Bft) 97,87 %
13.03.2023 04:52 11,3 C 10,6 C 6,7 C 96 % 1001,0 hPa 0,0 l/m 0 min 0 min 0 W/m 19,3 km/h (3 Bft) 97,87 %
13.03.2023 04:54 11,3 C 10,6 C 6,7 C 95 % 1000,9 hPa 0,0 l/m 0 min 0 min 0 W/m 25,7 km/h (4 Bft) 100,00 %
13.03.2023 04:56 11,4 C 10,6 C 6,7 C 95 % 1001,0 hPa 0,0 l/m 0 min 0 min 0 W/m 35,4 km/h (5 Bft) 100,00 %
13.03.2023 04:58 11,4 C 10,6 C 6,7 C 95 % 1001,0 hPa 0,0 l/m 0 min 0 min 0 W/m 29,0 km/h (5 Bft) 100,00 %
13.03.2023 05:00 11,4 C 10,6 C 6,7 C 95 % 1001,0 hPa 0,0 l/m 0 min 0 min 0 W/m 29,0 km/h (5 Bft) 97,87 %
13.03.2023 05:02 11,4 C 11,1 C 6,7 C 95 % 1001,0 hPa 0,0 l/m 0 min 0 min 0 W/m 22,5 km/h (4 Bft) 95,74 %
13.03.2023 05:04 11,6 C 11,1 C 6,7 C 95 % 1000,8 hPa 0,0 l/m 0 min 0 min 0 W/m 35,4 km/h (5 Bft) 100,00 %
13.03.2023 05:06 11,6 C 11,1 C 6,7 C 95 % 1001,0 hPa 0,0 l/m 0 min 0 min 0 W/m 35,4 km/h (5 Bft) 100,00 %
13.03.2023 05:08 11,7 C 11,1 C 6,7 C 95 % 1000,8 hPa 0,0 l/m 0 min 0 min 0 W/m 35,4 km/h (5 Bft) 100,00 %
13.03.2023 05:10 11,7 C 11,1 C 6,7 C 95 % 1000,7 hPa 0,0 l/m 0 min 0 min 0 W/m 29,0 km/h (5 Bft) 97,87 %
13.03.2023 05:12 11,7 C 11,1 C 6,7 C 95 % 1000,8 hPa 0,0 l/m 0 min 0 min 0 W/m 38,6 km/h (5 Bft) 100,00 %
13.03.2023 05:14 11,8 C 11,1 C 6,7 C 94 % 1000,6 hPa 0,0 l/m 0 min 0 min 0 W/m 22,5 km/h (4 Bft) 100,00 %
13.03.2023 05:16 11,8 C 11,1 C 7,2 C 94 % 1000,5 hPa 0,0 l/m 0 min 0 min 0 W/m 29,0 km/h (5 Bft) 97,87 %
13.03.2023 05:18 11,8 C 11,1 C 7,2 C 94 % 1000,5 hPa 0,0 l/m 0 min 0 min 0 W/m 25,7 km/h (4 Bft) 97,87 %
13.03.2023 05:20 11,8 C 11,1 C 7,2 C 94 % 1000,4 hPa 0,0 l/m 0 min 0 min 0 W/m 32,2 km/h (5 Bft) 100,00 %
13.03.2023 05:22 11,9 C 11,1 C 7,2 C 94 % 1000,5 hPa 0,0 l/m 0 min 0 min 0 W/m 19,3 km/h (3 Bft) 97,87 %
13.03.2023 05:24 11,9 C 11,1 C 7,2 C 94 % 1000,7 hPa 0,0 l/m 0 min 0 min 0 W/m 19,3 km/h (3 Bft) 100,00 %
13.03.2023 05:26 11,9 C 11,1 C 7,2 C 94 % 1000,5 hPa 0,0 l/m 0 min 0 min 0 W/m 51,5 km/h (7 Bft) 97,87 %
13.03.2023 05:28 11,9 C 11,1 C 7,2 C 94 % 1000,5 hPa 0,0 l/m 0 min 0 min 0 W/m 41,8 km/h (6 Bft) 100,00 %
13.03.2023 05:30 11,9 C 11,1 C 7,2 C 94 % 1000,5 hPa 0,0 l/m 0 min 0 min 0 W/m 22,5 km/h (4 Bft) 95,74 %
13.03.2023 05:32 12,0 C 11,1 C 7,2 C 94 % 1000,7 hPa 0,0 l/m 0 min 0 min 0 W/m 38,6 km/h (5 Bft) 98,15 %
13.03.2023 05:34 12,1 C 11,1 C 7,2 C 94 % 1000,7 hPa 0,0 l/m 0 min 0 min 0 W/m 38,6 km/h (5 Bft) 97,87 %
13.03.2023 05:36 12,1 C 11,7 C 7,2 C 94 % 1000,4 hPa 0,0 l/m 0 min 0 min 0 W/m 57,9 km/h (7 Bft) 97,37 %
13.03.2023 05:38 12,1 C 11,7 C 7,2 C 93 % 1000,6 hPa 0,0 l/m 0 min 0 min 0 W/m 45,1 km/h (6 Bft) 97,92 %
13.03.2023 05:40 12,1 C 11,7 C 7,2 C 94 % 1000,5 hPa 0,0 l/m 0 min 0 min 0 W/m 35,4 km/h (5 Bft) 95,74 %
13.03.2023 05:42 12,2 C 11,7 C 7,2 C 93 % 1000,5 hPa 0,0 l/m 0 min 0 min 0 W/m 38,6 km/h (5 Bft) 95,74 %
13.03.2023 05:44 12,2 C 11,7 C 7,2 C 93 % 1000,5 hPa 0,0 l/m 0 min 0 min 0 W/m 38,6 km/h (5 Bft) 95,74 %
13.03.2023 05:46 12,2 C 11,7 C 7,2 C 93 % 1000,5 hPa 0,0 l/m 0 min 0 min 0 W/m 25,7 km/h (4 Bft) 89,58 %
13.03.2023 05:48 12,2 C 11,7 C 7,2 C 93 % 1000,4 hPa 0,0 l/m 0 min 0 min 0 W/m 45,1 km/h (6 Bft) 91,49 %
13.03.2023 05:50 12,2 C 11,7 C 7,2 C 93 % 1000,4 hPa 0,0 l/m 0 min 0 min 0 W/m 22,5 km/h (4 Bft) 93,62 %
13.03.2023 05:52 12,2 C 11,7 C 7,2 C 93 % 1000,3 hPa 0,0 l/m 0 min 0 min 0 W/m 38,6 km/h (5 Bft) 91,49 %
13.03.2023 05:54 12,2 C 11,7 C 7,2 C 93 % 1000,4 hPa 0,0 l/m 0 min 0 min 0 W/m 32,2 km/h (5 Bft) 94,00 %
13.03.2023 05:56 12,3 C 11,7 C 7,2 C 93 % 1000,3 hPa 0,0 l/m 0 min 0 min 0 W/m 32,2 km/h (5 Bft) 93,62 %
13.03.2023 05:58 12,3 C 11,7 C 7,2 C 93 % 1000,4 hPa 0,0 l/m 0 min 0 min 0 W/m 41,8 km/h (6 Bft) 93,48 %
13.03.2023 06:00 12,3 C 11,7 C 7,2 C 93 % 1000,3 hPa 0,0 l/m 0 min 0 min 0 W/m 25,7 km/h (4 Bft) 93,62 %
13.03.2023 06:02 12,3 C 11,7 C 7,2 C 93 % 1000,4 hPa 0,0 l/m 0 min 0 min 0 W/m 45,1 km/h (6 Bft) 91,49 %
13.03.2023 06:04 12,3 C 11,7 C 7,2 C 93 % 1000,3 hPa 0,0 l/m 0 min 0 min 0 W/m 32,2 km/h (5 Bft) 93,62 %
13.03.2023 06:07 12,3 C 11,7 C 7,2 C 93 % 1000,1 hPa 0,0 l/m 0 min 0 min 0 W/m 54,7 km/h (7 Bft) 92,86 %
13.03.2023 06:08 12,3 C 11,7 C 7,2 C 93 % 1000,1 hPa 0,0 l/m 0 min 0 min 0 W/m 25,7 km/h (4 Bft) 95,83 %
13.03.2023 06:12 12,3 C 11,7 C 7,2 C 93 % 1000,1 hPa 0,0 l/m 0 min 0 min 0 W/m 48,3 km/h (6 Bft) 93,88 %
13.03.2023 06:14 12,3 C 11,7 C 7,2 C 93 % 1000,1 hPa 0,0 l/m 0 min 0 min 0 W/m 35,4 km/h (5 Bft) 96,30 %
13.03.2023 06:16 12,4 C 11,7 C 7,8 C 93 % 1000,0 hPa 0,0 l/m 0 min 0 min 0 W/m 45,1 km/h (6 Bft) 95,92 %
13.03.2023 06:18 12,4 C 11,7 C 7,2 C 93 % 1000,1 hPa 0,0 l/m 0 min 0 min 0 W/m 35,4 km/h (5 Bft) 93,62 %
13.03.2023 06:20 12,4 C 11,7 C 7,8 C 93 % 1000,1 hPa 0,0 l/m 0 min 0 min 0 W/m 41,8 km/h (6 Bft) 97,87 %
13.03.2023 06:22 12,4 C 11,7 C 7,8 C 93 % 999,9 hPa 0,0 l/m 0 min 0 min 0 W/m 35,4 km/h (5 Bft) 97,87 %
13.03.2023 06:24 12,4 C 11,7 C 7,8 C 93 % 1000,0 hPa 0,0 l/m 0 min 0 min 0 W/m 32,2 km/h (5 Bft) 97,87 %
13.03.2023 06:26 12,4 C 11,7 C 7,2 C 93 % 1000,0 hPa 0,0 l/m 0 min 0 min 0 W/m 19,3 km/h (3 Bft) 95,65 %
13.03.2023 06:28 12,4 C 11,7 C 7,2 C 93 % 999,9 hPa 0,0 l/m 0 min 0 min 0 W/m 35,4 km/h (5 Bft) 97,87 %
13.03.2023 06:30 12,4 C 11,7 C 7,2 C 93 % 999,9 hPa 0,0 l/m 0 min 0 min 0 W/m 38,6 km/h (5 Bft) 97,87 %
13.03.2023 06:32 12,4 C 11,7 C 7,2 C 93 % 1000,0 hPa 0,0 l/m 0 min 0 min 0 W/m 29,0 km/h (5 Bft) 97,87 %
13.03.2023 06:34 12,4 C 11,7 C 7,8 C 93 % 1000,1 hPa 0,0 l/m 0 min 0 min 0 W/m 25,7 km/h (4 Bft) 97,87 %
13.03.2023 06:36 12,4 C 11,7 C 7,2 C 93 % 1000,0 hPa 0,0 l/m 0 min 0 min 0 W/m 25,7 km/h (4 Bft) 100,00 %
13.03.2023 06:38 12,4 C 11,7 C 7,8 C 93 % 999,9 hPa 0,0 l/m 0 min 0 min 0 W/m 38,6 km/h (5 Bft) 97,87 %
13.03.2023 06:40 12,4 C 11,7 C 7,8 C 93 % 1000,0 hPa 0,0 l/m 0 min 0 min 0 W/m 38,6 km/h (5 Bft) 100,00 %
13.03.2023 06:42 12,4 C 11,7 C 7,8 C 93 % 1000,0 hPa 0,0 l/m 0 min 0 min 0 W/m 29,0 km/h (5 Bft) 100,00 %
13.03.2023 06:44 12,4 C 11,7 C 7,8 C 93 % 1000,1 hPa 0,0 l/m 0 min 0 min 0 W/m 35,4 km/h (5 Bft) 97,87 %
13.03.2023 06:46 12,5 C 11,7 C 7,8 C 93 % 1000,1 hPa 0,0 l/m 0 min 0 min 0 W/m 35,4 km/h (5 Bft) 97,87 %
13.03.2023 06:48 12,5 C 11,7 C 7,8 C 93 % 1000,1 hPa 0,0 l/m 0 min 0 min 0 W/m 38,6 km/h (5 Bft) 97,87 %
13.03.2023 06:50 12,6 C 11,7 C 7,8 C 93 % 1000,0 hPa 0,0 l/m 0 min 0 min 0 W/m 35,4 km/h (5 Bft) 97,87 %
13.03.2023 06:52 12,6 C 11,7 C 7,8 C 92 % 1000,0 hPa 0,0 l/m 0 min 0 min 0 W/m 29,0 km/h (5 Bft) 100,00 %
13.03.2023 06:54 12,6 C 11,7 C 7,8 C 92 % 1000,0 hPa 0,0 l/m 0 min 0 min 0 W/m 35,4 km/h (5 Bft) 97,83 %
13.03.2023 06:56 12,6 C 11,7 C 7,8 C 92 % 1000,1 hPa 0,0 l/m 0 min 0 min 0 W/m 25,7 km/h (4 Bft) 97,87 %
13.03.2023 06:58 12,6 C 11,7 C 7,8 C 92 % 1000,1 hPa 0,0 l/m 0 min 0 min 0 W/m 32,2 km/h (5 Bft) 97,87 %
13.03.2023 07:00 12,6 C 12,2 C 7,8 C 92 % 1000,0 hPa 0,0 l/m 0 min 0 min 0 W/m 35,4 km/h (5 Bft) 100,00 %
13.03.2023 07:02 12,7 C 12,2 C 7,8 C 92 % 999,9 hPa 0,0 l/m 0 min 0 min 0 W/m 35,4 km/h (5 Bft) 95,74 %
13.03.2023 07:04 12,7 C 12,2 C 7,8 C 92 % 1000,0 hPa 0,0 l/m 0 min 0 min 0 W/m 54,7 km/h (7 Bft) 100,00 %
13.03.2023 07:06 12,7 C 12,2 C 7,8 C 92 % 1000,0 hPa 0,0 l/m 0 min 0 min 0 W/m 32,2 km/h (5 Bft) 97,87 %
13.03.2023 07:08 12,7 C 12,2 C 7,8 C 92 % 1000,1 hPa 0,0 l/m 0 min 0 min 0 W/m 19,3 km/h (3 Bft) 97,83 %
13.03.2023 07:10 12,7 C 12,2 C 7,8 C 92 % 1000,0 hPa 0,0 l/m 0 min 0 min 0 W/m 29,0 km/h (5 Bft) 100,00 %
13.03.2023 07:12 12,7 C 12,2 C 7,8 C 92 % 1000,0 hPa 0,0 l/m 0 min 0 min 0 W/m 22,5 km/h (4 Bft) 100,00 %
13.03.2023 07:14 12,8 C 12,2 C 7,8 C 92 % 999,9 hPa 0,0 l/m 0 min 0 min 3 W/m 35,4 km/h (5 Bft) 97,87 %
13.03.2023 07:16 12,8 C 12,2 C 7,8 C 91 % 1000,0 hPa 0,0 l/m 0 min 0 min 6 W/m 35,4 km/h (5 Bft) 100,00 %
13.03.2023 07:18 12,8 C 12,2 C 7,8 C 91 % 1000,0 hPa 0,0 l/m 0 min 0 min 7 W/m 41,8 km/h (6 Bft) 100,00 %
13.03.2023 07:20 12,8 C 12,2 C 7,8 C 91 % 999,9 hPa 0,0 l/m 0 min 0 min 8 W/m 29,0 km/h (5 Bft) 100,00 %
13.03.2023 07:22 12,8 C 12,2 C 7,8 C 91 % 999,8 hPa 0,0 l/m 0 min 0 min 9 W/m 22,5 km/h (4 Bft) 100,00 %
13.03.2023 07:24 12,8 C 12,2 C 7,8 C 91 % 999,8 hPa 0,0 l/m 0 min 0 min 8 W/m 41,8 km/h (6 Bft) 97,96 %
13.03.2023 07:26 12,9 C 12,2 C 7,8 C 91 % 999,9 hPa 0,0 l/m 0 min 0 min 7 W/m 29,0 km/h (5 Bft) 100,00 %
13.03.2023 07:28 12,9 C 12,2 C 7,8 C 91 % 999,9 hPa 0,0 l/m 0 min 0 min 7 W/m 29,0 km/h (5 Bft) 100,00 %
13.03.2023 07:30 12,9 C 12,2 C 7,8 C 91 % 999,8 hPa 0,0 l/m 0 min 0 min 7 W/m 35,4 km/h (5 Bft) 100,00 %
13.03.2023 07:32 12,9 C 12,2 C 7,8 C 91 % 999,8 hPa 0,0 l/m 0 min 0 min 9 W/m 32,2 km/h (5 Bft) 97,92 %
13.03.2023 07:34 13,0 C 12,2 C 7,8 C 90 % 999,8 hPa 0,0 l/m 0 min 0 min 9 W/m 29,0 km/h (5 Bft) 97,87 %
13.03.2023 07:36 13,0 C 12,2 C 7,8 C 90 % 999,9 hPa 0,0 l/m 0 min 0 min 10 W/m 41,8 km/h (6 Bft) 97,87 %
13.03.2023 07:38 13,1 C 12,2 C 7,8 C 90 % 999,9 hPa 0,0 l/m 0 min 0 min 11 W/m 22,5 km/h (4 Bft) 97,87 %
13.03.2023 07:40 13,1 C 12,2 C 7,8 C 90 % 999,9 hPa 0,0 l/m 0 min 0 min 7 W/m 41,8 km/h (6 Bft) 97,87 %
13.03.2023 07:42 13,1 C 12,2 C 7,8 C 90 % 1000,0 hPa 0,0 l/m 0 min 0 min 9 W/m 35,4 km/h (5 Bft) 97,87 %
13.03.2023 07:44 13,1 C 12,2 C 7,8 C 90 % 1000,0 hPa 0,0 l/m 0 min 0 min 9 W/m 41,8 km/h (6 Bft) 54,35 %
13.03.2023 07:46 13,2 C 12,8 C 7,8 C 90 % 999,9 hPa 0,0 l/m 0 min 0 min 9 W/m 54,7 km/h (7 Bft) 100,00 %
13.03.2023 07:48 13,2 C 12,8 C 7,8 C 89 % 1000,0 hPa 0,0 l/m 0 min 0 min 14 W/m 48,3 km/h (6 Bft) 97,87 %
13.03.2023 07:50 13,2 C 12,8 C 7,8 C 89 % 1000,0 hPa 0,0 l/m 0 min 0 min 14 W/m 35,4 km/h (5 Bft) 95,74 %
13.03.2023 07:52 13,3 C 12,8 C 7,8 C 89 % 1000,1 hPa 0,0 l/m 0 min 0 min 17 W/m 25,7 km/h (4 Bft) 97,87 %
13.03.2023 07:54 13,3 C 12,8 C 7,8 C 89 % 1000,0 hPa 0,0 l/m 0 min 0 min 17 W/m 41,8 km/h (6 Bft) 97,87 %
13.03.2023 07:56 13,3 C 12,8 C 7,8 C 89 % 1000,0 hPa 0,0 l/m 0 min 0 min 21 W/m 41,8 km/h (6 Bft) 97,83 %
13.03.2023 07:58 13,3 C 12,8 C 7,8 C 89 % 999,9 hPa 0,0 l/m 0 min 0 min 19 W/m 48,3 km/h (6 Bft) 95,74 %
13.03.2023 08:00 13,3 C 12,8 C 7,8 C 89 % 999,9 hPa 0,0 l/m 0 min 0 min 22 W/m 35,4 km/h (5 Bft) 97,87 %
13.03.2023 08:02 13,3 C 12,8 C 7,8 C 89 % 1000,0 hPa 0,0 l/m 0 min 0 min 23 W/m 29,0 km/h (5 Bft) 97,87 %
13.03.2023 08:04 13,3 C 12,8 C 7,8 C 88 % 1000,1 hPa 0,0 l/m 0 min 0 min 20 W/m 32,2 km/h (5 Bft) 97,87 %
13.03.2023 08:06 13,3 C 12,8 C 8,3 C 88 % 999,9 hPa 0,0 l/m 0 min 0 min 21 W/m 29,0 km/h (5 Bft) 100,00 %
13.03.2023 08:08 13,3 C 12,8 C 8,9 C 88 % 1000,0 hPa 0,0 l/m 0 min 0 min 26 W/m 38,6 km/h (5 Bft) 97,87 %
13.03.2023 08:10 13,4 C 12,8 C 8,9 C 88 % 999,8 hPa 0,0 l/m 0 min 0 min 28 W/m 41,8 km/h (6 Bft) 100,00 %
13.03.2023 08:12 13,4 C 12,8 C 8,9 C 88 % 999,9 hPa 0,0 l/m 0 min 0 min 26 W/m 41,8 km/h (6 Bft) 97,87 %
13.03.2023 08:14 13,4 C 12,8 C 8,9 C 88 % 999,8 hPa 0,0 l/m 0 min 0 min 30 W/m 32,2 km/h (5 Bft) 97,87 %
13.03.2023 08:16 13,4 C 12,8 C 8,9 C 87 % 999,9 hPa 0,0 l/m 0 min 0 min 27 W/m 38,6 km/h (5 Bft) 97,87 %
13.03.2023 08:18 13,5 C 12,8 C 8,9 C 87 % 999,8 hPa 0,0 l/m 0 min 0 min 33 W/m 35,4 km/h (5 Bft) 97,87 %
13.03.2023 08:20 13,5 C 12,8 C 8,9 C 87 % 999,7 hPa 0,0 l/m 0 min 0 min 37 W/m 41,8 km/h (6 Bft) 95,74 %
13.03.2023 08:22 13,6 C 12,8 C 8,9 C 87 % 999,7 hPa 0,0 l/m 0 min 0 min 37 W/m 29,0 km/h (5 Bft) 97,87 %
13.03.2023 08:24 13,6 C 12,8 C 8,9 C 87 % 999,7 hPa 0,0 l/m 0 min 0 min 39 W/m 25,7 km/h (4 Bft) 95,65 %
13.03.2023 08:26 13,6 C 12,8 C 8,9 C 87 % 999,7 hPa 0,0 l/m 0 min 0 min 38 W/m 29,0 km/h (5 Bft) 97,87 %
13.03.2023 08:28 13,6 C 12,8 C 9,4 C 87 % 999,6 hPa 0,0 l/m 0 min 0 min 35 W/m 57,9 km/h (7 Bft) 95,74 %
13.03.2023 08:30 13,6 C 12,8 C 9,4 C 86 % 999,7 hPa 0,0 l/m 0 min 0 min 34 W/m 29,0 km/h (5 Bft) 97,87 %
13.03.2023 08:32 13,6 C 12,8 C 9,4 C 86 % 999,6 hPa 0,0 l/m 0 min 0 min 35 W/m 38,6 km/h (5 Bft) 97,87 %
13.03.2023 08:34 13,6 C 12,8 C 9,4 C 86 % 999,6 hPa 0,0 l/m 0 min 0 min 40 W/m 35,4 km/h (5 Bft) 95,74 %
13.03.2023 08:36 13,7 C 13,3 C 9,4 C 86 % 999,5 hPa 0,0 l/m 0 min 0 min 47 W/m 45,1 km/h (6 Bft) 94,29 %
13.03.2023 08:38 13,7 C 13,3 C 9,4 C 86 % 999,5 hPa 0,0 l/m 0 min 0 min 42 W/m 35,4 km/h (5 Bft) 96,30 %
13.03.2023 08:40 13,7 C 12,8 C 9,4 C 85 % 999,5 hPa 0,0 l/m 0 min 0 min 33 W/m 38,6 km/h (5 Bft) 95,74 %
13.03.2023 08:42 13,7 C 12,8 C 9,4 C 85 % 999,5 hPa 0,0 l/m 0 min 0 min 34 W/m 38,6 km/h (5 Bft) 95,74 %
13.03.2023 08:44 13,7 C 12,8 C 9,4 C 85 % 999,6 hPa 0,0 l/m 0 min 0 min 32 W/m 32,2 km/h (5 Bft) 93,48 %
13.03.2023 08:46 13,7 C 13,3 C 9,4 C 85 % 999,6 hPa 0,0 l/m 0 min 0 min 27 W/m 48,3 km/h (6 Bft) 95,74 %
13.03.2023 08:48 13,8 C 12,8 C 9,4 C 85 % 999,6 hPa 0,0 l/m 0 min 0 min 23 W/m 25,7 km/h (4 Bft) 95,74 %
13.03.2023 08:50 13,8 C 13,3 C 9,4 C 85 % 999,6 hPa 0,0 l/m 0 min 0 min 20 W/m 38,6 km/h (5 Bft) 93,62 %
13.03.2023 08:52 13,8 C 12,8 C 9,4 C 84 % 999,6 hPa 0,0 l/m 0 min 0 min 19 W/m 35,4 km/h (5 Bft) 95,74 %
13.03.2023 08:54 13,8 C 12,8 C 9,4 C 84 % 999,6 hPa 0,0 l/m 0 min 0 min 19 W/m 29,0 km/h (5 Bft) 91,49 %
13.03.2023 08:56 13,8 C 12,8 C 9,4 C 84 % 999,6 hPa 0,0 l/m 0 min 0 min 21 W/m 45,1 km/h (6 Bft) 95,74 %
13.03.2023 08:58 13,8 C 12,8 C 9,4 C 84 % 999,6 hPa 0,0 l/m 0 min 0 min 20 W/m 32,2 km/h (5 Bft) 95,65 %
13.03.2023 09:00 13,8 C 12,8 C 9,4 C 84 % 999,6 hPa 0,0 l/m 0 min 0 min 17 W/m 32,2 km/h (5 Bft) 97,87 %
13.03.2023 09:02 13,8 C 12,8 C 9,4 C 84 % 999,5 hPa 0,0 l/m 0 min 0 min 19 W/m 22,5 km/h (4 Bft) 95,74 %
13.03.2023 09:04 13,8 C 12,8 C 9,4 C 84 % 999,6 hPa 0,0 l/m 0 min 0 min 25 W/m 32,2 km/h (5 Bft) 97,87 %
13.03.2023 09:06 13,8 C 12,8 C 9,4 C 84 % 999,5 hPa 0,0 l/m 0 min 0 min 29 W/m 25,7 km/h (4 Bft) 97,87 %
13.03.2023 09:08 13,8 C 13,3 C 9,4 C 84 % 999,5 hPa 0,0 l/m 0 min 0 min 34 W/m 64,4 km/h (8 Bft) 97,87 %
13.03.2023 09:10 13,9 C 13,3 C 9,4 C 84 % 999,5 hPa 0,0 l/m 0 min 0 min 41 W/m 38,6 km/h (5 Bft) 95,74 %
13.03.2023 09:12 13,9 C 13,3 C 9,4 C 84 % 999,5 hPa 0,0 l/m 0 min 0 min 42 W/m 48,3 km/h (6 Bft) 97,83 %
13.03.2023 09:14 13,9 C 13,3 C 9,4 C 84 % 999,6 hPa 0,0 l/m 0 min 0 min 49 W/m 38,6 km/h (5 Bft) 97,87 %
13.03.2023 09:16 13,9 C 13,3 C 9,4 C 84 % 999,5 hPa 0,0 l/m 0 min 0 min 57 W/m 38,6 km/h (5 Bft) 95,74 %
13.03.2023 09:18 13,9 C 13,3 C 9,4 C 84 % 999,6 hPa 0,0 l/m 0 min 0 min 57 W/m 38,6 km/h (5 Bft) 95,74 %
13.03.2023 09:20 13,9 C 13,3 C 9,4 C 84 % 999,5 hPa 0,0 l/m 0 min 0 min 57 W/m 29,0 km/h (5 Bft) 97,87 %
13.03.2023 09:22 14,0 C 13,3 C 9,4 C 84 % 999,6 hPa 0,0 l/m 0 min 0 min 74 W/m 32,2 km/h (5 Bft) 100,00 %
13.03.2023 09:24 14,0 C 13,3 C 9,4 C 84 % 999,6 hPa 0,0 l/m 0 min 0 min 81 W/m 45,1 km/h (6 Bft) 100,00 %
13.03.2023 09:26 14,1 C 13,3 C 10,0 C 83 % 999,7 hPa 0,0 l/m 0 min 0 min 61 W/m 48,3 km/h (6 Bft) 95,74 %
13.03.2023 09:28 14,1 C 13,3 C 10,0 C 83 % 999,5 hPa 0,0 l/m 0 min 0 min 81 W/m 29,0 km/h (5 Bft) 97,87 %
13.03.2023 09:30 14,1 C 13,3 C 10,0 C 84 % 999,5 hPa 0,0 l/m 0 min 0 min 109 W/m 35,4 km/h (5 Bft) 100,00 %
13.03.2023 09:32 14,1 C 13,3 C 10,0 C 84 % 999,6 hPa 0,0 l/m 0 min 0 min 97 W/m 35,4 km/h (5 Bft) 100,00 %
13.03.2023 09:34 14,1 C 13,3 C 10,0 C 83 % 999,5 hPa 0,0 l/m 0 min 0 min 69 W/m 41,8 km/h (6 Bft) 100,00 %
13.03.2023 09:36 14,2 C 13,3 C 10,0 C 83 % 999,5 hPa 0,0 l/m 0 min 0 min 61 W/m 48,3 km/h (6 Bft) 97,87 %
13.03.2023 09:38 14,2 C 13,3 C 10,0 C 83 % 999,5 hPa 0,0 l/m 0 min 0 min 63 W/m 32,2 km/h (5 Bft) 97,83 %
13.03.2023 09:40 14,2 C 13,3 C 10,0 C 83 % 999,6 hPa 0,0 l/m 0 min 0 min 49 W/m 32,2 km/h (5 Bft) 95,74 %
13.03.2023 09:42 14,2 C 13,3 C 10,0 C 84 % 999,5 hPa 0,0 l/m 0 min 0 min 32 W/m 32,2 km/h (5 Bft) 97,87 %
13.03.2023 09:44 14,1 C 13,3 C 9,4 C 84 % 999,5 hPa 0,0 l/m 0 min 0 min 26 W/m 25,7 km/h (4 Bft) 97,87 %
13.03.2023 09:46 14,1 C 13,3 C 9,4 C 84 % 999,5 hPa 0,0 l/m 0 min 0 min 20 W/m 41,8 km/h (6 Bft) 97,87 %
13.03.2023 09:48 14,1 C 13,3 C 10,0 C 84 % 999,5 hPa 0,0 l/m 0 min 0 min 23 W/m 38,6 km/h (5 Bft) 95,74 %
13.03.2023 09:50 14,1 C 13,3 C 9,4 C 84 % 999,5 hPa 0,0 l/m 0 min 0 min 32 W/m 29,0 km/h (5 Bft) 97,87 %
13.03.2023 09:52 14,1 C 13,3 C 10,0 C 84 % 999,5 hPa 0,0 l/m 0 min 0 min 54 W/m 29,0 km/h (5 Bft) 97,83 %
13.03.2023 09:54 14,1 C 13,3 C 9,4 C 84 % 999,5 hPa 0,0 l/m 0 min 0 min 90 W/m 22,5 km/h (4 Bft) 97,87 %
13.03.2023 09:56 14,1 C 13,9 C 10,0 C 84 % 999,5 hPa 0,0 l/m 0 min 0 min 147 W/m 45,1 km/h (6 Bft) 97,87 %
13.03.2023 09:58 14,2 C 13,9 C 10,0 C 84 % 999,4 hPa 0,0 l/m 0 min 0 min 202 W/m 38,6 km/h (5 Bft) 95,74 %
13.03.2023 10:00 14,3 C 13,9 C 10,0 C 84 % 999,4 hPa 0,0 l/m 0 min 0 min 176 W/m 38,6 km/h (5 Bft) 95,74 %
13.03.2023 10:02 14,3 C 13,9 C 10,0 C 84 % 999,4 hPa 0,0 l/m 0 min 0 min 92 W/m 29,0 km/h (5 Bft) 95,74 %
13.03.2023 10:04 14,3 C 13,9 C 10,0 C 84 % 999,3 hPa 0,0 l/m 0 min 0 min 104 W/m 35,4 km/h (5 Bft) 97,87 %
13.03.2023 10:06 14,3 C 13,9 C 10,0 C 84 % 999,3 hPa 0,0 l/m 0 min 0 min 118 W/m 48,3 km/h (6 Bft) 97,83 %
13.03.2023 10:08 14,3 C 13,9 C 10,0 C 84 % 999,3 hPa 0,0 l/m 0 min 0 min 96 W/m 35,4 km/h (5 Bft) 95,74 %
13.03.2023 10:10 14,3 C 13,9 C 10,0 C 84 % 999,3 hPa 0,0 l/m 0 min 0 min 84 W/m 19,3 km/h (3 Bft) 100,00 %
13.03.2023 10:12 14,3 C 13,9 C 10,0 C 84 % 999,4 hPa 0,0 l/m 0 min 0 min 53 W/m 57,9 km/h (7 Bft) 100,00 %
13.03.2023 10:14 14,3 C 13,9 C 10,0 C 84 % 999,3 hPa 0,0 l/m 0 min 0 min 63 W/m 32,2 km/h (5 Bft) 97,87 %
13.03.2023 10:16 14,3 C 13,9 C 9,4 C 85 % 999,2 hPa 0,0 l/m 0 min 0 min 116 W/m 25,7 km/h (4 Bft) 100,00 %
13.03.2023 10:18 14,3 C 13,9 C 9,4 C 85 % 999,2 hPa 0,0 l/m 0 min 0 min 98 W/m 32,2 km/h (5 Bft) 100,00 %
13.03.2023 10:20 14,3 C 13,3 C 9,4 C 85 % 999,1 hPa 0,0 l/m 0 min 0 min 72 W/m 29,0 km/h (5 Bft) 100,00 %
13.03.2023 10:22 14,3 C 13,3 C 10,0 C 85 % 999,1 hPa 0,0 l/m 0 min 0 min 63 W/m 19,3 km/h (3 Bft) 100,00 %
13.03.2023 10:24 14,2 C 13,3 C 9,4 C 85 % 999,2 hPa 0,0 l/m 0 min 0 min 60 W/m 22,5 km/h (4 Bft) 100,00 %
13.03.2023 10:26 14,2 C 13,3 C 9,4 C 86 % 999,1 hPa 0,0 l/m 0 min 0 min 72 W/m 29,0 km/h (5 Bft) 100,00 %
13.03.2023 10:28 14,2 C 13,3 C 9,4 C 86 % 999,1 hPa 0,0 l/m 0 min 0 min 73 W/m 25,7 km/h (4 Bft) 100,00 %
13.03.2023 10:30 14,1 C 13,3 C 9,4 C 86 % 999,1 hPa 0,0 l/m 0 min 0 min 106 W/m 35,4 km/h (5 Bft) 100,00 %
13.03.2023 10:32 14,2 C 13,9 C 10,0 C 86 % 999,0 hPa 0,0 l/m 0 min 0 min 130 W/m 22,5 km/h (4 Bft) 100,00 %
13.03.2023 10:34 14,2 C 13,9 C 10,0 C 86 % 999,0 hPa 0,0 l/m 0 min 0 min 108 W/m 22,5 km/h (4 Bft) 100,00 %
13.03.2023 10:36 14,2 C 13,9 C 10,0 C 86 % 999,0 hPa 0,0 l/m 0 min 0 min 65 W/m 38,6 km/h (5 Bft) 97,87 %
13.03.2023 10:38 14,2 C 13,9 C 10,0 C 86 % 998,9 hPa 0,0 l/m 0 min 0 min 88 W/m 35,4 km/h (5 Bft) 97,87 %
13.03.2023 10:40 14,3 C 13,9 C 10,0 C 86 % 998,9 hPa 0,0 l/m 0 min 0 min 94 W/m 35,4 km/h (5 Bft) 100,00 %
13.03.2023 10:42 14,3 C 13,9 C 10,0 C 86 % 999,0 hPa 0,0 l/m 0 min 0 min 80 W/m 32,2 km/h (5 Bft) 100,00 %
13.03.2023 10:44 14,3 C 13,9 C 10,0 C 85 % 998,9 hPa 0,0 l/m 0 min 0 min 75 W/m 45,1 km/h (6 Bft) 97,87 %
13.03.2023 10:46 14,3 C 13,9 C 10,0 C 85 % 999,0 hPa 0,0 l/m 0 min 0 min 78 W/m 25,7 km/h (4 Bft) 97,83 %
13.03.2023 10:48 14,3 C 13,9 C 10,0 C 85 % 999,0 hPa 0,0 l/m 0 min 0 min 103 W/m 32,2 km/h (5 Bft) 100,00 %
13.03.2023 10:50 14,3 C 14,4 C 10,6 C 85 % 999,0 hPa 0,0 l/m 0 min 0 min 166 W/m 38,6 km/h (5 Bft) 100,00 %
13.03.2023 10:52 14,4 C 14,4 C 10,6 C 85 % 998,8 hPa 0,0 l/m 0 min 0 min 240 W/m 32,2 km/h (5 Bft) 95,74 %
13.03.2023 10:54 14,5 C 15,0 C 10,6 C 85 % 998,7 hPa 0,0 l/m 0 min 0 min 183 W/m 35,4 km/h (5 Bft) 97,87 %
13.03.2023 10:56 14,6 C 15,0 C 10,6 C 85 % 998,8 hPa 0,0 l/m 0 min 0 min 178 W/m 32,2 km/h (5 Bft) 100,00 %
13.03.2023 10:58 14,7 C 15,6 C 11,1 C 85 % 998,7 hPa 0,0 l/m 0 min 0 min 233 W/m 25,7 km/h (4 Bft) 100,00 %
13.03.2023 11:00 14,7 C 15,6 C 11,1 C 85 % 998,7 hPa 0,0 l/m 0 min 0 min 177 W/m 29,0 km/h (5 Bft) 97,83 %
13.03.2023 11:02 14,8 C 15,6 C 11,1 C 85 % 998,6 hPa 0,0 l/m 0 min 0 min 243 W/m 25,7 km/h (4 Bft) 93,62 %
13.03.2023 11:04 14,9 C 15,6 C 11,1 C 84 % 998,5 hPa 0,0 l/m 0 min 0 min 219 W/m 32,2 km/h (5 Bft) 97,87 %
13.03.2023 11:06 15,0 C 15,6 C 11,1 C 84 % 998,5 hPa 0,0 l/m 0 min 0 min 237 W/m 45,1 km/h (6 Bft) 95,74 %
13.03.2023 11:08 15,1 C 15,6 C 11,1 C 83 % 998,6 hPa 0,0 l/m 0 min 0 min 219 W/m 41,8 km/h (6 Bft) 97,87 %
13.03.2023 11:10 15,1 C 15,6 C 11,1 C 83 % 998,5 hPa 0,0 l/m 0 min 0 min 216 W/m 35,4 km/h (5 Bft) 97,87 %
13.03.2023 11:12 15,2 C 17,2 C 12,2 C 83 % 998,4 hPa 0,0 l/m 0 min 0 min 207 W/m 29,0 km/h (5 Bft) 97,87 %
13.03.2023 11:14 15,3 C 17,2 C 12,2 C 83 % 998,5 hPa 0,0 l/m 0 min 0 min 218 W/m 22,5 km/h (4 Bft) 95,74 %
13.03.2023 11:16 15,4 C 16,7 C 12,2 C 82 % 998,4 hPa 0,0 l/m 0 min 0 min 253 W/m 35,4 km/h (5 Bft) 91,30 %
13.03.2023 11:18 15,6 C 18,9 C 13,9 C 82 % 998,4 hPa 0,0 l/m 0 min 0 min 263 W/m 54,7 km/h (7 Bft) 95,74 %
13.03.2023 11:20 15,7 C 17,2 C 13,3 C 82 % 998,2 hPa 0,0 l/m 0 min 0 min 264 W/m 35,4 km/h (5 Bft) 93,62 %
13.03.2023 11:22 15,7 C 16,7 C 12,8 C 81 % 998,4 hPa 0,0 l/m 0 min 0 min 258 W/m 48,3 km/h (6 Bft) 91,49 %
13.03.2023 11:24 15,7 C 17,2 C 12,8 C 81 % 998,3 hPa 0,0 l/m 0 min 0 min 237 W/m 32,2 km/h (5 Bft) 95,74 %
13.03.2023 11:26 15,8 C 18,9 C 13,9 C 81 % 998,4 hPa 0,0 l/m 0 min 0 min 244 W/m 29,0 km/h (5 Bft) 95,74 %
13.03.2023 11:28 15,8 C 17,8 C 13,3 C 81 % 998,4 hPa 0,0 l/m 0 min 0 min 223 W/m 35,4 km/h (5 Bft) 93,48 %
13.03.2023 11:30 15,8 C 16,7 C 12,8 C 80 % 998,3 hPa 0,0 l/m 0 min 0 min 199 W/m 45,1 km/h (6 Bft) 95,74 %
13.03.2023 11:32 15,9 C 16,7 C 12,8 C 80 % 998,2 hPa 0,0 l/m 0 min 0 min 242 W/m 41,8 km/h (6 Bft) 95,74 %
13.03.2023 11:34 15,9 C 16,7 C 12,8 C 80 % 998,1 hPa 0,0 l/m 0 min 0 min 273 W/m 32,2 km/h (5 Bft) 93,62 %
13.03.2023 11:36 15,9 C 16,1 C 12,2 C 80 % 998,3 hPa 0,0 l/m 0 min 0 min 213 W/m 57,9 km/h (7 Bft) 91,49 %
13.03.2023 11:38 15,9 C 16,1 C 12,2 C 80 % 998,1 hPa 0,0 l/m 0 min 0 min 174 W/m 45,1 km/h (6 Bft) 91,49 %
13.03.2023 11:40 15,8 C 16,1 C 12,2 C 79 % 998,5 hPa 0,0 l/m 0 min 0 min 243 W/m 70,8 km/h (8 Bft) 93,48 %
13.03.2023 11:42 15,9 C 17,2 C 12,8 C 80 % 998,0 hPa 0,0 l/m 2 min 0 min 306 W/m 32,2 km/h (5 Bft) 93,62 %
13.03.2023 11:44 15,9 C 17,2 C 12,8 C 80 % 998,0 hPa 0,0 l/m 2 min 0 min 357 W/m 61,2 km/h (7 Bft) 93,62 %
13.03.2023 11:46 16,1 C 17,2 C 12,8 C 79 % 998,1 hPa 0,0 l/m 2 min 0 min 392 W/m 54,7 km/h (7 Bft) 89,36 %
13.03.2023 11:48 16,1 C 17,2 C 12,8 C 79 % 997,9 hPa 0,0 l/m 2 min 0 min 337 W/m 48,3 km/h (6 Bft) 93,62 %
13.03.2023 11:50 16,1 C 17,8 C 12,8 C 79 % 998,0 hPa 0,0 l/m 2 min 0 min 316 W/m 29,0 km/h (5 Bft) 93,62 %
13.03.2023 11:52 16,2 C 17,2 C 12,8 C 79 % 998,0 hPa 0,0 l/m 2 min 0 min 320 W/m 41,8 km/h (6 Bft) 93,62 %
13.03.2023 11:54 16,2 C 17,2 C 12,8 C 79 % 998,1 hPa 0,0 l/m 2 min 0 min 353 W/m 45,1 km/h (6 Bft) 93,48 %
13.03.2023 11:56 16,3 C 17,2 C 12,8 C 79 % 997,9 hPa 0,0 l/m 2 min 0 min 364 W/m 48,3 km/h (6 Bft) 95,74 %
13.03.2023 11:58 16,3 C 16,7 C 12,8 C 78 % 997,8 hPa 0,0 l/m 0 min 0 min 281 W/m 45,1 km/h (6 Bft) 97,87 %
13.03.2023 12:00 16,3 C 16,7 C 12,8 C 78 % 997,8 hPa 0,0 l/m 0 min 0 min 231 W/m 32,2 km/h (5 Bft) 93,62 %
13.03.2023 12:02 16,2 C 16,7 C 12,8 C 78 % 997,7 hPa 0,0 l/m 0 min 0 min 224 W/m 38,6 km/h (5 Bft) 95,74 %
13.03.2023 12:04 16,2 C 16,7 C 12,8 C 78 % 997,6 hPa 0,0 l/m 0 min 0 min 252 W/m 51,5 km/h (7 Bft) 97,87 %
13.03.2023 12:07 16,2 C 16,7 C 12,2 C 78 % 997,7 hPa 0,0 l/m 0 min 0 min 246 W/m 48,3 km/h (6 Bft) 97,14 %
13.03.2023 12:08 16,2 C 16,7 C 12,2 C 78 % 997,7 hPa 0,0 l/m 1 min 0 min 304 W/m 29,0 km/h (5 Bft) 100,00 %
13.03.2023 12:12 16,2 C 16,7 C 12,8 C 78 % 997,7 hPa 0,0 l/m 4 min 0 min 302 W/m 64,4 km/h (8 Bft) 96,15 %
13.03.2023 12:14 16,2 C 16,1 C 12,2 C 77 % 997,7 hPa 0,0 l/m 0 min 0 min 274 W/m 64,4 km/h (8 Bft) 100,00 %
13.03.2023 12:16 16,3 C 16,7 C 12,2 C 77 % 997,6 hPa 0,0 l/m 0 min 0 min 278 W/m 45,1 km/h (6 Bft) 100,00 %
13.03.2023 12:18 16,3 C 16,7 C 12,8 C 77 % 997,6 hPa 0,0 l/m 2 min 0 min 352 W/m 54,7 km/h (7 Bft) 97,87 %
13.03.2023 12:20 16,4 C 16,7 C 12,8 C 77 % 997,5 hPa 0,2 l/m 2 min 0 min 349 W/m 64,4 km/h (8 Bft) 100,00 %
13.03.2023 12:22 16,4 C 16,7 C 12,8 C 76 % 997,4 hPa 0,0 l/m 2 min 0 min 303 W/m 57,9 km/h (7 Bft) 100,00 %
13.03.2023 12:24 16,5 C 17,2 C 12,8 C 76 % 997,5 hPa 0,0 l/m 2 min 0 min 325 W/m 48,3 km/h (6 Bft) 100,00 %
13.03.2023 12:26 16,6 C 17,8 C 13,3 C 77 % 997,4 hPa 0,0 l/m 2 min 0 min 356 W/m 29,0 km/h (5 Bft) 100,00 %
13.03.2023 12:28 16,7 C 18,3 C 14,4 C 76 % 997,3 hPa 0,0 l/m 2 min 0 min 343 W/m 48,3 km/h (6 Bft) 100,00 %
13.03.2023 12:30 16,9 C 18,3 C 13,9 C 74 % 997,3 hPa 0,0 l/m 2 min 0 min 334 W/m 61,2 km/h (7 Bft) 100,00 %
13.03.2023 12:32 16,9 C 17,8 C 13,9 C 73 % 997,3 hPa 0,0 l/m 0 min 0 min 278 W/m 54,7 km/h (7 Bft) 100,00 %
13.03.2023 12:34 17,0 C 17,8 C 13,3 C 72 % 997,0 hPa 0,0 l/m 2 min 0 min 414 W/m 57,9 km/h (7 Bft) 97,87 %
13.03.2023 12:36 17,1 C 17,8 C 13,3 C 73 % 997,1 hPa 0,0 l/m 2 min 0 min 683 W/m 38,6 km/h (5 Bft) 100,00 %
13.03.2023 12:38 17,1 C 18,3 C 13,3 C 72 % 997,2 hPa 0,0 l/m 2 min 0 min 741 W/m 67,6 km/h (8 Bft) 95,74 %
13.03.2023 12:40 17,2 C 18,9 C 13,3 C 72 % 997,1 hPa 0,0 l/m 2 min 0 min 728 W/m 32,2 km/h (5 Bft) 100,00 %
13.03.2023 12:42 17,3 C 19,4 C 13,3 C 72 % 997,1 hPa 0,0 l/m 2 min 0 min 811 W/m 25,7 km/h (4 Bft) 100,00 %
13.03.2023 12:44 17,4 C 19,4 C 13,9 C 72 % 997,2 hPa 0,0 l/m 2 min 0 min 599 W/m 29,0 km/h (5 Bft) 100,00 %
13.03.2023 12:46 17,6 C 19,4 C 13,3 C 71 % 997,0 hPa 0,0 l/m 2 min 0 min 715 W/m 38,6 km/h (5 Bft) 100,00 %
13.03.2023 12:48 17,5 C 18,3 C 13,3 C 71 % 997,2 hPa 0,0 l/m 2 min 0 min 474 W/m 61,2 km/h (7 Bft) 100,00 %
13.03.2023 12:50 17,4 C 17,8 C 13,3 C 71 % 997,1 hPa 0,0 l/m 0 min 0 min 260 W/m 41,8 km/h (6 Bft) 100,00 %
13.03.2023 12:52 17,3 C 18,3 C 12,8 C 71 % 997,0 hPa 0,0 l/m 0 min 0 min 204 W/m 48,3 km/h (6 Bft) 100,00 %
13.03.2023 12:54 17,3 C 20,0 C 13,3 C 72 % 997,1 hPa 0,0 l/m 2 min 0 min 430 W/m 19,3 km/h (3 Bft) 97,87 %
13.03.2023 12:56 17,4 C 20,0 C 13,3 C 72 % 997,0 hPa 0,0 l/m 2 min 0 min 592 W/m 29,0 km/h (5 Bft) 100,00 %
13.03.2023 12:58 17,4 C 18,3 C 13,3 C 71 % 996,7 hPa 0,0 l/m 0 min 0 min 231 W/m 45,1 km/h (6 Bft) 100,00 %
13.03.2023 13:00 17,3 C 17,8 C 12,8 C 71 % 996,8 hPa 0,0 l/m 0 min 0 min 222 W/m 35,4 km/h (5 Bft) 100,00 %
13.03.2023 13:02 17,2 C 17,8 C 12,8 C 71 % 996,9 hPa 0,0 l/m 0 min 0 min 237 W/m 35,4 km/h (5 Bft) 100,00 %
13.03.2023 13:04 17,2 C 17,2 C 12,8 C 71 % 996,6 hPa 0,0 l/m 0 min 0 min 243 W/m 32,2 km/h (5 Bft) 100,00 %
13.03.2023 13:06 17,1 C 17,2 C 12,8 C 71 % 996,6 hPa 0,0 l/m 0 min 0 min 228 W/m 32,2 km/h (5 Bft) 100,00 %
13.03.2023 13:08 17,1 C 17,8 C 12,8 C 72 % 996,6 hPa 0,0 l/m 0 min 0 min 254 W/m 57,9 km/h (7 Bft) 97,14 %
13.03.2023 13:10 17,1 C 20,0 C 12,8 C 72 % 996,8 hPa 0,0 l/m 2 min 0 min 301 W/m 48,3 km/h (6 Bft) 100,00 %
13.03.2023 13:12 17,3 C 20,6 C 13,3 C 73 % 996,7 hPa 0,0 l/m 2 min 0 min 628 W/m 29,0 km/h (5 Bft) 100,00 %
13.03.2023 13:14 17,4 C 20,6 C 13,3 C 72 % 996,5 hPa 0,0 l/m 2 min 0 min 594 W/m 51,5 km/h (7 Bft) 100,00 %
13.03.2023 13:16 17,4 C 18,9 C 13,3 C 72 % 996,7 hPa 0,0 l/m 2 min 0 min 306 W/m 54,7 km/h (7 Bft) 100,00 %
13.03.2023 13:18 17,4 C 19,4 C 13,3 C 72 % 996,5 hPa 0,0 l/m 2 min 0 min 310 W/m 45,1 km/h (6 Bft) 100,00 %
13.03.2023 13:20 17,4 C 20,0 C 13,3 C 72 % 996,5 hPa 0,0 l/m 2 min 0 min 339 W/m 38,6 km/h (5 Bft) 97,87 %
13.03.2023 13:22 17,4 C 20,0 C 13,3 C 72 % 996,5 hPa 0,0 l/m 0 min 0 min 255 W/m 48,3 km/h (6 Bft) 100,00 %
13.03.2023 13:24 17,4 C 18,3 C 12,8 C 72 % 996,6 hPa 0,0 l/m 0 min 0 min 232 W/m 54,7 km/h (7 Bft) 100,00 %
13.03.2023 13:26 17,3 C 19,4 C 12,8 C 73 % 996,4 hPa 0,0 l/m 2 min 0 min 401 W/m 61,2 km/h (7 Bft) 100,00 %
13.03.2023 13:28 17,3 C 19,4 C 12,8 C 72 % 996,5 hPa 0,0 l/m 2 min 0 min 458 W/m 41,8 km/h (6 Bft) 100,00 %
13.03.2023 13:30 17,3 C 20,0 C 12,8 C 73 % 996,3 hPa 0,0 l/m 0 min 0 min 209 W/m 35,4 km/h (5 Bft) 100,00 %
13.03.2023 13:32 17,3 C 18,9 C 12,8 C 73 % 996,4 hPa 0,0 l/m 0 min 0 min 200 W/m 48,3 km/h (6 Bft) 97,87 %
13.03.2023 13:34 17,2 C 18,9 C 12,8 C 73 % 996,4 hPa 0,0 l/m 0 min 0 min 186 W/m 41,8 km/h (6 Bft) 100,00 %
13.03.2023 13:36 17,2 C 18,3 C 12,8 C 73 % 996,4 hPa 0,0 l/m 0 min 0 min 170 W/m 25,7 km/h (4 Bft) 100,00 %
13.03.2023 13:38 17,1 C 17,8 C 12,8 C 73 % 996,4 hPa 0,0 l/m 0 min 0 min 161 W/m 41,8 km/h (6 Bft) 97,87 %
13.03.2023 13:40 17,1 C 17,2 C 12,8 C 72 % 996,3 hPa 0,0 l/m 0 min 0 min 173 W/m 38,6 km/h (5 Bft) 100,00 %
13.03.2023 13:42 16,9 C 17,2 C 12,2 C 72 % 996,3 hPa 0,0 l/m 0 min 0 min 215 W/m 54,7 km/h (7 Bft) 100,00 %
13.03.2023 13:44 16,9 C 17,8 C 12,8 C 71 % 996,2 hPa 0,0 l/m 0 min 0 min 255 W/m 41,8 km/h (6 Bft) 97,87 %
13.03.2023 13:46 17,0 C 19,4 C 12,8 C 72 % 996,1 hPa 0,0 l/m 2 min 0 min 297 W/m 32,2 km/h (5 Bft) 95,74 %
13.03.2023 13:48 17,2 C 20,0 C 12,8 C 71 % 996,2 hPa 0,0 l/m 2 min 0 min 768 W/m 54,7 km/h (7 Bft) 95,74 %
13.03.2023 13:50 17,3 C 18,9 C 12,8 C 71 % 996,0 hPa 0,0 l/m 2 min 0 min 539 W/m 38,6 km/h (5 Bft) 95,74 %
13.03.2023 13:52 17,3 C 18,3 C 12,8 C 70 % 995,9 hPa 0,0 l/m 0 min 0 min 226 W/m 35,4 km/h (5 Bft) 95,74 %
13.03.2023 13:54 17,3 C 18,9 C 12,8 C 70 % 995,9 hPa 0,0 l/m 0 min 0 min 216 W/m 54,7 km/h (7 Bft) 95,65 %
13.03.2023 13:56 17,3 C 19,4 C 12,8 C 70 % 995,9 hPa 0,0 l/m 0 min 0 min 216 W/m 29,0 km/h (5 Bft) 91,49 %
13.03.2023 13:58 17,4 C 19,4 C 13,3 C 71 % 995,8 hPa 0,0 l/m 0 min 0 min 216 W/m 32,2 km/h (5 Bft) 89,36 %
13.03.2023 14:00 17,6 C 19,4 C 13,3 C 70 % 995,8 hPa 0,0 l/m 2 min 0 min 642 W/m 51,5 km/h (7 Bft) 91,49 %
13.03.2023 14:02 17,6 C 18,3 C 13,3 C 70 % 995,7 hPa 0,0 l/m 2 min 0 min 312 W/m 41,8 km/h (6 Bft) 93,62 %
13.03.2023 14:04 17,5 C 18,3 C 13,3 C 70 % 995,7 hPa 0,0 l/m 2 min 0 min 323 W/m 41,8 km/h (6 Bft) 95,74 %
13.03.2023 14:06 17,5 C 18,3 C 13,3 C 71 % 995,9 hPa 0,0 l/m 2 min 0 min 489 W/m 45,1 km/h (6 Bft) 96,55 %
13.03.2023 14:08 17,5 C 18,9 C 13,3 C 71 % 995,8 hPa 0,0 l/m 2 min 0 min 556 W/m 57,9 km/h (7 Bft) 91,43 %
13.03.2023 14:10 17,7 C 19,4 C 13,3 C 71 % 995,9 hPa 0,0 l/m 2 min 0 min 554 W/m 64,4 km/h (8 Bft) 93,62 %
13.03.2023 14:12 17,7 C 18,9 C 13,3 C 71 % 995,8 hPa 0,0 l/m 2 min 0 min 747 W/m 57,9 km/h (7 Bft) 95,74 %
13.03.2023 14:14 17,6 C 18,9 C 12,8 C 71 % 995,7 hPa 0,0 l/m 2 min 0 min 307 W/m 38,6 km/h (5 Bft) 95,74 %
13.03.2023 14:16 17,7 C 18,9 C 13,3 C 71 % 995,7 hPa 0,0 l/m 2 min 0 min 718 W/m 41,8 km/h (6 Bft) 93,62 %
13.03.2023 14:18 17,7 C 19,4 C 13,3 C 71 % 995,5 hPa 0,0 l/m 2 min 0 min 695 W/m 57,9 km/h (7 Bft) 93,62 %
13.03.2023 14:20 17,7 C 18,9 C 13,3 C 71 % 995,6 hPa 0,0 l/m 2 min 0 min 628 W/m 51,5 km/h (7 Bft) 97,83 %
13.03.2023 14:22 17,8 C 19,4 C 13,3 C 71 % 995,5 hPa 0,0 l/m 2 min 0 min 656 W/m 48,3 km/h (6 Bft) 95,74 %
13.03.2023 14:24 17,8 C 19,4 C 13,3 C 70 % 995,5 hPa 0,0 l/m 2 min 0 min 717 W/m 45,1 km/h (6 Bft) 95,74 %
13.03.2023 14:26 17,8 C 18,9 C 13,3 C 69 % 995,5 hPa 0,0 l/m 2 min 0 min 659 W/m 67,6 km/h (8 Bft) 93,62 %
13.03.2023 14:28 17,7 C 19,4 C 13,3 C 69 % 995,5 hPa 0,0 l/m 2 min 0 min 632 W/m 54,7 km/h (7 Bft) 95,74 %
13.03.2023 14:30 17,8 C 19,4 C 13,3 C 71 % 995,5 hPa 0,0 l/m 2 min 0 min 594 W/m 35,4 km/h (5 Bft) 95,74 %
13.03.2023 14:32 17,8 C 19,4 C 13,3 C 71 % 995,5 hPa 0,0 l/m 2 min 0 min 621 W/m 22,5 km/h (4 Bft) 95,65 %
13.03.2023 14:34 17,9 C 19,4 C 13,3 C 71 % 995,6 hPa 0,0 l/m 2 min 0 min 650 W/m 29,0 km/h (5 Bft) 95,74 %
13.03.2023 14:36 18,0 C 19,4 C 13,3 C 70 % 995,5 hPa 0,0 l/m 2 min 0 min 650 W/m 45,1 km/h (6 Bft) 97,87 %
13.03.2023 14:38 18,0 C 18,9 C 13,3 C 70 % 995,7 hPa 0,0 l/m 2 min 0 min 654 W/m 48,3 km/h (6 Bft) 93,62 %
13.03.2023 14:40 17,8 C 17,8 C 13,3 C 69 % 995,5 hPa 0,0 l/m 2 min 0 min 374 W/m 61,2 km/h (7 Bft) 97,87 %
13.03.2023 14:42 17,7 C 17,2 C 12,8 C 70 % 995,4 hPa 0,0 l/m 0 min 0 min 204 W/m 45,1 km/h (6 Bft) 95,74 %
13.03.2023 14:44 17,5 C 17,2 C 12,8 C 71 % 995,4 hPa 0,0 l/m 0 min 0 min 218 W/m 48,3 km/h (6 Bft) 97,87 %
13.03.2023 14:46 17,4 C 17,8 C 12,8 C 72 % 995,4 hPa 0,0 l/m 0 min 0 min 246 W/m 32,2 km/h (5 Bft) 97,83 %
13.03.2023 14:48 17,4 C 17,8 C 12,8 C 72 % 995,3 hPa 0,0 l/m 2 min 0 min 267 W/m 25,7 km/h (4 Bft) 97,87 %
13.03.2023 14:50 17,4 C 17,8 C 13,3 C 73 % 995,4 hPa 0,0 l/m 2 min 0 min 278 W/m 22,5 km/h (4 Bft) 93,62 %
13.03.2023 14:52 17,4 C 17,8 C 13,3 C 73 % 995,3 hPa 0,0 l/m 2 min 0 min 246 W/m 29,0 km/h (5 Bft) 97,87 %
13.03.2023 14:54 17,4 C 17,2 C 12,8 C 72 % 995,3 hPa 0,0 l/m 0 min 0 min 213 W/m 45,1 km/h (6 Bft) 97,87 %
13.03.2023 14:56 17,3 C 17,2 C 12,8 C 73 % 995,2 hPa 0,0 l/m 0 min 0 min 196 W/m 35,4 km/h (5 Bft) 97,87 %
13.03.2023 14:58 17,3 C 17,2 C 12,8 C 73 % 995,3 hPa 0,0 l/m 0 min 0 min 146 W/m 19,3 km/h (3 Bft) 95,74 %
13.03.2023 15:00 17,3 C 16,7 C 12,8 C 73 % 995,3 hPa 0,0 l/m 0 min 0 min 161 W/m 35,4 km/h (5 Bft) 95,65 %
13.03.2023 15:02 17,2 C 16,7 C 12,8 C 73 % 995,3 hPa 0,0 l/m 0 min 0 min 136 W/m 35,4 km/h (5 Bft) 95,74 %
13.03.2023 15:04 17,1 C 16,7 C 12,8 C 73 % 995,3 hPa 0,0 l/m 0 min 0 min 107 W/m 35,4 km/h (5 Bft) 97,87 %
13.03.2023 15:06 17,1 C 16,1 C 12,2 C 73 % 995,3 hPa 0,0 l/m 0 min 0 min 86 W/m 41,8 km/h (6 Bft) 97,87 %
13.03.2023 15:08 17,0 C 16,1 C 12,2 C 74 % 995,2 hPa 0,0 l/m 0 min 0 min 105 W/m 25,7 km/h (4 Bft) 95,74 %
13.03.2023 15:10 16,9 C 16,7 C 12,2 C 74 % 995,1 hPa 0,0 l/m 0 min 0 min 147 W/m 16,1 km/h (3 Bft) 97,87 %
13.03.2023 15:12 16,9 C 16,7 C 12,2 C 74 % 995,0 hPa 0,0 l/m 0 min 0 min 195 W/m 25,7 km/h (4 Bft) 97,87 %
13.03.2023 15:14 16,9 C 16,7 C 12,2 C 74 % 995,1 hPa 0,0 l/m 0 min 0 min 199 W/m 29,0 km/h (5 Bft) 95,65 %
13.03.2023 15:16 16,9 C 16,7 C 12,8 C 74 % 995,0 hPa 0,0 l/m 0 min 0 min 168 W/m 35,4 km/h (5 Bft) 97,87 %
13.03.2023 15:18 16,9 C 16,7 C 12,2 C 74 % 994,9 hPa 0,0 l/m 0 min 0 min 126 W/m 38,6 km/h (5 Bft) 100,00 %
13.03.2023 15:20 16,8 C 16,1 C 12,2 C 74 % 994,9 hPa 0,0 l/m 0 min 0 min 99 W/m 41,8 km/h (6 Bft) 100,00 %
13.03.2023 15:22 16,8 C 16,1 C 12,2 C 74 % 994,9 hPa 0,0 l/m 0 min 0 min 98 W/m 19,3 km/h (3 Bft) 100,00 %
13.03.2023 15:24 16,8 C 16,1 C 12,2 C 74 % 994,9 hPa 0,0 l/m 0 min 0 min 74 W/m 16,1 km/h (3 Bft) 100,00 %
13.03.2023 15:26 16,8 C 16,1 C 12,2 C 74 % 994,9 hPa 0,0 l/m 0 min 0 min 84 W/m 32,2 km/h (5 Bft) 97,87 %
13.03.2023 15:28 16,7 C 16,1 C 12,2 C 74 % 994,9 hPa 0,0 l/m 0 min 0 min 80 W/m 48,3 km/h (6 Bft) 95,65 %
13.03.2023 15:30 16,7 C 16,1 C 12,2 C 74 % 994,8 hPa 0,0 l/m 0 min 0 min 59 W/m 35,4 km/h (5 Bft) 97,87 %
13.03.2023 15:32 16,6 C 16,1 C 12,2 C 75 % 994,9 hPa 0,0 l/m 0 min 0 min 67 W/m 29,0 km/h (5 Bft) 100,00 %
13.03.2023 15:34 16,6 C 16,1 C 11,7 C 75 % 995,0 hPa 0,0 l/m 0 min 0 min 85 W/m 41,8 km/h (6 Bft) 93,62 %
13.03.2023 15:36 16,6 C 16,1 C 11,7 C 76 % 995,0 hPa 0,0 l/m 0 min 0 min 99 W/m 25,7 km/h (4 Bft) 100,00 %
13.03.2023 15:38 16,5 C 16,1 C 12,2 C 76 % 995,0 hPa 0,0 l/m 0 min 0 min 97 W/m 38,6 km/h (5 Bft) 100,00 %
13.03.2023 15:40 16,6 C 16,7 C 12,2 C 76 % 995,1 hPa 0,0 l/m 0 min 0 min 104 W/m 29,0 km/h (5 Bft) 100,00 %
13.03.2023 15:42 16,6 C 17,2 C 12,2 C 77 % 995,1 hPa 0,0 l/m 2 min 0 min 215 W/m 16,1 km/h (3 Bft) 97,83 %
13.03.2023 15:44 16,6 C 16,7 C 12,2 C 76 % 995,0 hPa 0,0 l/m 0 min 0 min 165 W/m 32,2 km/h (5 Bft) 95,74 %
13.03.2023 15:46 16,6 C 16,7 C 12,2 C 75 % 994,9 hPa 0,0 l/m 0 min 0 min 123 W/m 25,7 km/h (4 Bft) 100,00 %
13.03.2023 15:48 16,6 C 16,1 C 12,2 C 75 % 995,1 hPa 0,0 l/m 0 min 0 min 119 W/m 35,4 km/h (5 Bft) 97,87 %
13.03.2023 15:50 16,6 C 16,1 C 12,2 C 75 % 995,1 hPa 0,0 l/m 0 min 0 min 152 W/m 45,1 km/h (6 Bft) 100,00 %
13.03.2023 15:52 16,5 C 16,1 C 12,2 C 75 % 994,9 hPa 0,0 l/m 0 min 0 min 161 W/m 29,0 km/h (5 Bft) 95,74 %
13.03.2023 15:54 16,5 C 16,1 C 12,2 C 76 % 995,0 hPa 0,0 l/m 0 min 0 min 162 W/m 25,7 km/h (4 Bft) 97,87 %
13.03.2023 15:56 16,4 C 16,1 C 11,7 C 75 % 994,9 hPa 0,0 l/m 0 min 0 min 168 W/m 57,9 km/h (7 Bft) 97,83 %
13.03.2023 15:58 16,4 C 16,1 C 11,7 C 76 % 994,9 hPa 0,0 l/m 0 min 0 min 175 W/m 48,3 km/h (6 Bft) 97,87 %
13.03.2023 16:00 16,3 C 16,1 C 11,7 C 75 % 994,9 hPa 0,0 l/m 0 min 0 min 180 W/m 48,3 km/h (6 Bft) 91,49 %
13.03.2023 16:02 16,3 C 16,1 C 11,7 C 75 % 994,8 hPa 0,0 l/m 2 min 0 min 184 W/m 51,5 km/h (7 Bft) 95,83 %
13.03.2023 16:04 16,3 C 16,1 C 11,7 C 75 % 994,9 hPa 0,0 l/m 0 min 0 min 179 W/m 35,4 km/h (5 Bft) 95,74 %
13.03.2023 16:06 16,2 C 15,6 C 11,7 C 75 % 994,8 hPa 0,0 l/m 0 min 0 min 155 W/m 54,7 km/h (7 Bft) 95,74 %
13.03.2023 16:08 16,2 C 15,6 C 11,7 C 75 % 994,8 hPa 0,0 l/m 0 min 0 min 137 W/m 57,9 km/h (7 Bft) 97,87 %
13.03.2023 16:10 16,2 C 15,6 C 11,7 C 76 % 994,8 hPa 0,0 l/m 0 min 0 min 141 W/m 32,2 km/h (5 Bft) 95,65 %
13.03.2023 16:12 16,1 C 15,6 C 11,7 C 75 % 994,7 hPa 0,0 l/m 0 min 0 min 142 W/m 45,1 km/h (6 Bft) 97,87 %
13.03.2023 16:14 16,1 C 15,6 C 11,7 C 76 % 994,6 hPa 0,0 l/m 0 min 0 min 143 W/m 41,8 km/h (6 Bft) 95,74 %
13.03.2023 16:16 16,0 C 15,6 C 11,7 C 76 % 994,6 hPa 0,0 l/m 0 min 0 min 140 W/m 35,4 km/h (5 Bft) 97,87 %
13.03.2023 16:18 15,9 C 15,6 C 11,7 C 76 % 994,6 hPa 0,0 l/m 0 min 0 min 141 W/m 41,8 km/h (6 Bft) 95,74 %
13.03.2023 16:20 16,0 C 16,7 C 11,7 C 76 % 994,5 hPa 0,0 l/m 2 min 0 min 203 W/m 25,7 km/h (4 Bft) 95,74 %
13.03.2023 16:22 16,1 C 17,2 C 11,7 C 76 % 994,5 hPa 0,0 l/m 2 min 0 min 450 W/m 25,7 km/h (4 Bft) 97,83 %
13.03.2023 16:24 16,2 C 17,2 C 11,7 C 76 % 994,5 hPa 0,0 l/m 2 min 0 min 267 W/m 29,0 km/h (5 Bft) 97,87 %
13.03.2023 16:26 16,2 C 17,8 C 11,7 C 76 % 994,5 hPa 0,0 l/m 2 min 0 min 407 W/m 16,1 km/h (3 Bft) 97,87 %
13.03.2023 16:28 16,3 C 17,8 C 11,7 C 76 % 994,4 hPa 0,0 l/m 2 min 0 min 366 W/m 19,3 km/h (3 Bft) 97,87 %
13.03.2023 16:30 16,4 C 16,7 C 11,7 C 75 % 994,4 hPa 0,0 l/m 2 min 0 min 336 W/m 22,5 km/h (4 Bft) 97,87 %
13.03.2023 16:32 16,4 C 16,7 C 11,7 C 75 % 994,4 hPa 0,0 l/m 2 min 0 min 321 W/m 19,3 km/h (3 Bft) 95,74 %
13.03.2023 16:34 16,4 C 16,1 C 11,7 C 75 % 994,4 hPa 0,0 l/m 2 min 0 min 308 W/m 38,6 km/h (5 Bft) 95,74 %
13.03.2023 16:36 16,5 C 16,1 C 11,7 C 74 % 994,2 hPa 0,0 l/m 2 min 0 min 278 W/m 38,6 km/h (5 Bft) 97,83 %
13.03.2023 16:38 16,4 C 15,6 C 11,7 C 74 % 994,1 hPa 0,0 l/m 2 min 0 min 296 W/m 29,0 km/h (5 Bft) 97,87 %
13.03.2023 16:40 16,4 C 16,1 C 11,7 C 74 % 994,1 hPa 0,0 l/m 2 min 0 min 304 W/m 19,3 km/h (3 Bft) 97,87 %
13.03.2023 16:42 16,4 C 16,1 C 11,7 C 74 % 994,0 hPa 0,0 l/m 2 min 0 min 283 W/m 41,8 km/h (6 Bft) 97,87 %
13.03.2023 16:44 16,4 C 15,6 C 11,7 C 74 % 994,0 hPa 0,0 l/m 0 min 0 min 132 W/m 38,6 km/h (5 Bft) 97,87 %
13.03.2023 16:46 16,3 C 16,1 C 11,7 C 74 % 994,0 hPa 0,0 l/m 0 min 0 min 132 W/m 29,0 km/h (5 Bft) 97,87 %
13.03.2023 16:48 16,4 C 16,1 C 11,7 C 74 % 994,0 hPa 0,0 l/m 2 min 0 min 281 W/m 35,4 km/h (5 Bft) 97,87 %
13.03.2023 16:50 16,4 C 16,1 C 11,7 C 75 % 993,9 hPa 0,0 l/m 2 min 0 min 263 W/m 19,3 km/h (3 Bft) 97,83 %
13.03.2023 16:52 16,4 C 16,1 C 11,7 C 74 % 993,9 hPa 0,0 l/m 2 min 0 min 251 W/m 29,0 km/h (5 Bft) 95,74 %
13.03.2023 16:54 16,4 C 16,1 C 11,7 C 75 % 993,8 hPa 0,0 l/m 2 min 0 min 262 W/m 41,8 km/h (6 Bft) 97,87 %
13.03.2023 16:56 16,4 C 15,6 C 11,7 C 74 % 993,7 hPa 0,0 l/m 2 min 0 min 230 W/m 16,1 km/h (3 Bft) 97,87 %
13.03.2023 16:58 16,4 C 15,6 C 11,7 C 74 % 993,7 hPa 0,0 l/m 2 min 0 min 210 W/m 29,0 km/h (5 Bft) 95,74 %
13.03.2023 17:00 16,3 C 15,6 C 11,1 C 73 % 993,6 hPa 0,0 l/m 2 min 0 min 206 W/m 41,8 km/h (6 Bft) 95,74 %
13.03.2023 17:02 16,3 C 15,6 C 11,1 C 73 % 993,6 hPa 0,0 l/m 2 min 0 min 202 W/m 35,4 km/h (5 Bft) 97,87 %
13.03.2023 17:04 16,2 C 15,6 C 11,1 C 73 % 993,5 hPa 0,0 l/m 2 min 0 min 195 W/m 25,7 km/h (4 Bft) 98,11 %
13.03.2023 17:06 16,2 C 15,6 C 11,1 C 73 % 993,4 hPa 0,0 l/m 2 min 0 min 180 W/m 32,2 km/h (5 Bft) 95,74 %
13.03.2023 17:08 16,1 C 15,6 C 11,1 C 73 % 993,4 hPa 0,0 l/m 2 min 0 min 173 W/m 38,6 km/h (5 Bft) 100,00 %
13.03.2023 17:10 16,1 C 15,0 C 11,1 C 73 % 993,4 hPa 0,0 l/m 2 min 0 min 164 W/m 16,1 km/h (3 Bft) 100,00 %
13.03.2023 17:12 16,1 C 15,0 C 11,1 C 74 % 993,5 hPa 0,0 l/m 2 min 0 min 157 W/m 38,6 km/h (5 Bft) 100,00 %
13.03.2023 17:14 16,0 C 15,0 C 11,1 C 73 % 993,3 hPa 0,0 l/m 2 min 0 min 149 W/m 22,5 km/h (4 Bft) 97,87 %
13.03.2023 17:16 16,0 C 15,0 C 11,1 C 74 % 993,4 hPa 0,0 l/m 2 min 0 min 135 W/m 22,5 km/h (4 Bft) 100,00 %
13.03.2023 17:18 15,9 C 15,0 C 11,1 C 74 % 993,3 hPa 0,0 l/m 0 min 0 min 82 W/m 16,1 km/h (3 Bft) 100,00 %
13.03.2023 17:20 15,9 C 15,0 C 11,1 C 74 % 993,3 hPa 0,0 l/m 0 min 0 min 40 W/m 16,1 km/h (3 Bft) 100,00 %
13.03.2023 17:22 15,9 C 15,0 C 11,1 C 74 % 993,5 hPa 0,0 l/m 0 min 0 min 35 W/m 19,3 km/h (3 Bft) 95,74 %
13.03.2023 17:24 15,9 C 15,0 C 11,1 C 74 % 993,3 hPa 0,0 l/m 0 min 0 min 35 W/m 25,7 km/h (4 Bft) 97,87 %
13.03.2023 17:26 15,8 C 15,0 C 11,1 C 73 % 993,1 hPa 0,0 l/m 0 min 0 min 32 W/m 57,9 km/h (7 Bft) 100,00 %
13.03.2023 17:28 15,8 C 15,0 C 11,1 C 73 % 993,2 hPa 0,0 l/m 0 min 0 min 30 W/m 25,7 km/h (4 Bft) 100,00 %
13.03.2023 17:30 15,8 C 15,0 C 11,1 C 73 % 993,1 hPa 0,0 l/m 0 min 0 min 30 W/m 19,3 km/h (3 Bft) 97,87 %
13.03.2023 17:32 15,7 C 15,0 C 10,6 C 73 % 993,0 hPa 0,0 l/m 0 min 0 min 34 W/m 29,0 km/h (5 Bft) 97,83 %
13.03.2023 17:34 15,7 C 15,0 C 10,6 C 73 % 993,0 hPa 0,0 l/m 0 min 0 min 41 W/m 29,0 km/h (5 Bft) 97,87 %
13.03.2023 17:36 15,6 C 15,0 C 10,6 C 73 % 993,0 hPa 0,0 l/m 0 min 0 min 44 W/m 19,3 km/h (3 Bft) 97,87 %
13.03.2023 17:38 15,6 C 14,4 C 10,6 C 73 % 993,0 hPa 0,0 l/m 0 min 0 min 46 W/m 32,2 km/h (5 Bft) 97,87 %
13.03.2023 17:40 15,5 C 14,4 C 10,6 C 73 % 993,1 hPa 0,0 l/m 0 min 0 min 46 W/m 25,7 km/h (4 Bft) 97,87 %
13.03.2023 17:42 15,5 C 14,4 C 10,6 C 73 % 993,1 hPa 0,0 l/m 0 min 0 min 44 W/m 38,6 km/h (5 Bft) 97,87 %
13.03.2023 17:44 15,5 C 14,4 C 10,6 C 72 % 993,0 hPa 0,0 l/m 0 min 0 min 42 W/m 29,0 km/h (5 Bft) 97,83 %
13.03.2023 17:46 15,5 C 14,4 C 10,6 C 73 % 993,0 hPa 0,0 l/m 0 min 0 min 38 W/m 16,1 km/h (3 Bft) 97,87 %
13.03.2023 17:48 15,4 C 14,4 C 10,6 C 73 % 993,0 hPa 0,0 l/m 0 min 0 min 33 W/m 22,5 km/h (4 Bft) 95,74 %
13.03.2023 17:50 15,4 C 14,4 C 10,6 C 73 % 993,0 hPa 0,0 l/m 0 min 0 min 35 W/m 22,5 km/h (4 Bft) 97,87 %
13.03.2023 17:52 15,4 C 14,4 C 10,6 C 73 % 993,0 hPa 0,0 l/m 0 min 0 min 34 W/m 29,0 km/h (5 Bft) 97,87 %
13.03.2023 17:54 15,3 C 14,4 C 10,6 C 73 % 992,9 hPa 0,0 l/m 0 min 0 min 30 W/m 25,7 km/h (4 Bft) 97,87 %
13.03.2023 17:56 15,3 C 14,4 C 10,6 C 73 % 993,0 hPa 0,0 l/m 0 min 0 min 26 W/m 22,5 km/h (4 Bft) 97,87 %
13.03.2023 17:58 15,3 C 14,4 C 10,6 C 73 % 993,1 hPa 0,0 l/m 0 min 0 min 22 W/m 25,7 km/h (4 Bft) 97,83 %
13.03.2023 18:00 15,3 C 14,4 C 10,6 C 73 % 993,1 hPa 0,0 l/m 0 min 0 min 19 W/m 19,3 km/h (3 Bft) 97,14 %
13.03.2023 18:02 15,2 C 14,4 C 10,6 C 73 % 993,1 hPa 0,0 l/m 0 min 0 min 18 W/m 22,5 km/h (4 Bft) 98,08 %
13.03.2023 18:04 15,2 C 14,4 C 10,6 C 73 % 993,2 hPa 0,0 l/m 0 min 0 min 17 W/m 22,5 km/h (4 Bft) 95,74 %
13.03.2023 18:07 15,2 C 14,4 C 10,6 C 73 % 993,1 hPa 0,0 l/m 0 min 0 min 14 W/m 29,0 km/h (5 Bft) 94,29 %
13.03.2023 18:08 15,2 C 14,4 C 10,6 C 73 % 993,1 hPa 0,0 l/m 0 min 0 min 12 W/m 32,2 km/h (5 Bft) 100,00 %
13.03.2023 18:12 15,1 C 14,4 C 10,6 C 73 % 993,1 hPa 0,0 l/m 0 min 0 min 10 W/m 19,3 km/h (3 Bft) 89,09 %
13.03.2023 18:14 15,1 C 13,9 C 10,0 C 73 % 993,1 hPa 0,0 l/m 0 min 0 min 9 W/m 9,7 km/h (2 Bft) 95,74 %
13.03.2023 18:16 15,1 C 13,9 C 10,0 C 73 % 993,1 hPa 0,0 l/m 0 min 0 min 7 W/m 22,5 km/h (4 Bft) 91,49 %
13.03.2023 18:18 15,1 C 13,9 C 10,0 C 73 % 993,1 hPa 0,0 l/m 0 min 0 min 7 W/m 25,7 km/h (4 Bft) 97,83 %
13.03.2023 18:20 15,1 C 13,9 C 10,0 C 74 % 993,1 hPa 0,0 l/m 0 min 0 min 5 W/m 22,5 km/h (4 Bft) 95,74 %
13.03.2023 18:22 15,0 C 13,9 C 10,0 C 74 % 993,1 hPa 0,0 l/m 0 min 0 min 5 W/m 29,0 km/h (5 Bft) 95,74 %
13.03.2023 18:24 15,0 C 13,9 C 10,0 C 74 % 993,0 hPa 0,0 l/m 0 min 0 min 6 W/m 25,7 km/h (4 Bft) 95,74 %
13.03.2023 18:26 15,0 C 13,9 C 10,0 C 74 % 993,0 hPa 0,0 l/m 0 min 0 min 7 W/m 32,2 km/h (5 Bft) 95,74 %
13.03.2023 18:28 15,0 C 13,9 C 10,0 C 74 % 993,1 hPa 0,0 l/m 0 min 0 min 7 W/m 25,7 km/h (4 Bft) 95,74 %
13.03.2023 18:30 15,0 C 13,9 C 10,0 C 74 % 993,0 hPa 0,0 l/m 0 min 0 min 5 W/m 22,5 km/h (4 Bft) 97,87 %
13.03.2023 18:32 15,0 C 13,9 C 10,0 C 74 % 993,1 hPa 0,0 l/m 0 min 0 min 5 W/m 16,1 km/h (3 Bft) 97,83 %
13.03.2023 18:34 14,9 C 13,9 C 10,0 C 75 % 993,0 hPa 0,0 l/m 0 min 0 min 5 W/m 12,9 km/h (3 Bft) 95,74 %
13.03.2023 18:36 14,9 C 13,9 C 10,0 C 75 % 993,0 hPa 0,0 l/m 0 min 0 min 5 W/m 12,9 km/h (3 Bft) 100,00 %
13.03.2023 18:38 14,9 C 13,9 C 10,0 C 75 % 993,0 hPa 0,0 l/m 0 min 0 min 6 W/m 16,1 km/h (3 Bft) 97,87 %
13.03.2023 18:40 14,9 C 13,9 C 10,0 C 75 % 993,0 hPa 0,0 l/m 0 min 0 min 6 W/m 12,9 km/h (3 Bft) 100,00 %
13.03.2023 18:42 14,8 C 13,9 C 10,0 C 76 % 993,0 hPa 0,0 l/m 0 min 0 min 5 W/m 29,0 km/h (5 Bft) 100,00 %
13.03.2023 18:44 14,8 C 13,9 C 10,0 C 76 % 992,9 hPa 0,0 l/m 0 min 0 min 0 W/m 16,1 km/h (3 Bft) 100,00 %
13.03.2023 18:46 14,8 C 13,9 C 10,0 C 76 % 992,9 hPa 0,0 l/m 0 min 0 min 0 W/m 22,5 km/h (4 Bft) 100,00 %
13.03.2023 18:48 14,8 C 13,9 C 10,0 C 76 % 992,9 hPa 0,0 l/m 0 min 0 min 0 W/m 12,9 km/h (3 Bft) 100,00 %
13.03.2023 18:50 14,8 C 13,9 C 9,4 C 76 % 992,9 hPa 0,0 l/m 0 min 0 min 0 W/m 9,7 km/h (2 Bft) 100,00 %
13.03.2023 18:52 14,7 C 13,9 C 9,4 C 77 % 992,9 hPa 0,0 l/m 0 min 0 min 0 W/m 19,3 km/h (3 Bft) 100,00 %
13.03.2023 18:54 14,7 C 13,3 C 9,4 C 77 % 992,8 hPa 0,0 l/m 0 min 0 min 0 W/m 12,9 km/h (3 Bft) 100,00 %
13.03.2023 18:56 14,7 C 13,3 C 9,4 C 77 % 992,8 hPa 0,0 l/m 0 min 0 min 0 W/m 12,9 km/h (3 Bft) 100,00 %
13.03.2023 18:58 14,6 C 13,3 C 9,4 C 77 % 992,8 hPa 0,0 l/m 0 min 0 min 0 W/m 12,9 km/h (3 Bft) 100,00 %
13.03.2023 19:00 14,6 C 13,3 C 9,4 C 77 % 992,7 hPa 0,0 l/m 0 min 0 min 0 W/m 16,1 km/h (3 Bft) 100,00 %
13.03.2023 19:02 14,6 C 13,3 C 9,4 C 77 % 992,6 hPa 0,0 l/m 0 min 0 min 0 W/m 6,4 km/h (2 Bft) 97,87 %
13.03.2023 19:04 14,5 C 13,3 C 9,4 C 77 % 992,5 hPa 0,0 l/m 0 min 0 min 0 W/m 12,9 km/h (3 Bft) 97,87 %
13.03.2023 19:06 14,4 C 13,3 C 9,4 C 77 % 992,6 hPa 0,0 l/m 0 min 0 min 0 W/m 12,9 km/h (3 Bft) 98,28 %
13.03.2023 19:08 14,4 C 13,3 C 9,4 C 77 % 992,6 hPa 0,0 l/m 0 min 0 min 0 W/m 12,9 km/h (3 Bft) 97,73 %
13.03.2023 19:10 14,4 C 13,3 C 9,4 C 77 % 992,7 hPa 0,0 l/m 0 min 0 min 0 W/m 12,9 km/h (3 Bft) 95,74 %
13.03.2023 19:12 14,3 C 13,3 C 9,4 C 78 % 992,8 hPa 0,0 l/m 0 min 0 min 0 W/m 12,9 km/h (3 Bft) 95,65 %
13.03.2023 19:14 14,3 C 13,3 C 9,4 C 78 % 992,9 hPa 0,0 l/m 0 min 0 min 0 W/m 6,4 km/h (2 Bft) 97,87 %
13.03.2023 19:16 14,3 C 13,3 C 9,4 C 78 % 992,9 hPa 0,0 l/m 0 min 0 min 0 W/m 16,1 km/h (3 Bft) 97,87 %
13.03.2023 19:18 14,3 C 13,3 C 9,4 C 78 % 992,9 hPa 0,0 l/m 0 min 0 min 0 W/m 12,9 km/h (3 Bft) 97,87 %
13.03.2023 19:20 14,3 C 12,8 C 9,4 C 78 % 992,9 hPa 0,0 l/m 0 min 0 min 0 W/m 16,1 km/h (3 Bft) 95,74 %
13.03.2023 19:22 14,3 C 12,8 C 8,9 C 78 % 992,8 hPa 0,0 l/m 0 min 0 min 0 W/m 6,4 km/h (2 Bft) 97,87 %
13.03.2023 19:24 14,3 C 12,8 C 8,9 C 78 % 992,7 hPa 0,0 l/m 0 min 0 min 0 W/m 16,1 km/h (3 Bft) 97,87 %
13.03.2023 19:26 14,2 C 12,8 C 8,9 C 78 % 992,8 hPa 0,0 l/m 0 min 0 min 0 W/m 12,9 km/h (3 Bft) 93,48 %
13.03.2023 19:28 14,2 C 12,8 C 8,9 C 78 % 992,8 hPa 0,0 l/m 0 min 0 min 0 W/m 12,9 km/h (3 Bft) 97,67 %
13.03.2023 19:30 14,1 C 12,8 C 8,9 C 78 % 992,8 hPa 0,0 l/m 0 min 0 min 0 W/m 12,9 km/h (3 Bft) 95,74 %
13.03.2023 19:32 14,1 C 12,8 C 8,9 C 78 % 992,8 hPa 0,0 l/m 0 min 0 min 0 W/m 16,1 km/h (3 Bft) 96,55 %
13.03.2023 19:34 14,0 C 12,8 C 8,9 C 78 % 992,8 hPa 0,0 l/m 0 min 0 min 0 W/m 19,3 km/h (3 Bft) 97,14 %
13.03.2023 19:36 14,0 C 12,8 C 8,9 C 78 % 992,8 hPa 0,0 l/m 0 min 0 min 0 W/m 19,3 km/h (3 Bft) 98,00 %
13.03.2023 19:38 13,9 C 12,8 C 8,9 C 78 % 992,8 hPa 0,0 l/m 0 min 0 min 0 W/m 12,9 km/h (3 Bft) 97,87 %
13.03.2023 19:40 13,9 C 12,8 C 8,9 C 78 % 992,8 hPa 0,0 l/m 0 min 0 min 0 W/m 22,5 km/h (4 Bft) 97,87 %
13.03.2023 19:42 13,9 C 12,8 C 8,9 C 78 % 992,8 hPa 0,0 l/m 0 min 0 min 0 W/m 19,3 km/h (3 Bft) 97,87 %
13.03.2023 19:44 13,9 C 12,8 C 8,9 C 78 % 992,8 hPa 0,0 l/m 0 min 0 min 0 W/m 12,9 km/h (3 Bft) 95,74 %
13.03.2023 19:46 13,9 C 12,8 C 8,9 C 78 % 992,8 hPa 0,0 l/m 0 min 0 min 0 W/m 16,1 km/h (3 Bft) 95,74 %
13.03.2023 19:48 13,9 C 12,8 C 8,9 C 78 % 992,8 hPa 0,0 l/m 0 min 0 min 0 W/m 25,7 km/h (4 Bft) 97,83 %
13.03.2023 19:50 13,9 C 12,8 C 8,9 C 78 % 992,8 hPa 0,0 l/m 0 min 0 min 0 W/m 19,3 km/h (3 Bft) 93,62 %
13.03.2023 19:52 13,9 C 12,8 C 8,9 C 78 % 992,7 hPa 0,0 l/m 0 min 0 min 0 W/m 16,1 km/h (3 Bft) 97,87 %
13.03.2023 19:54 13,9 C 12,8 C 8,9 C 78 % 992,7 hPa 0,0 l/m 0 min 0 min 0 W/m 16,1 km/h (3 Bft) 100,00 %
13.03.2023 19:56 13,9 C 12,8 C 8,9 C 78 % 992,6 hPa 0,0 l/m 0 min 0 min 0 W/m 19,3 km/h (3 Bft) 100,00 %
13.03.2023 19:58 13,9 C 12,8 C 8,9 C 78 % 992,6 hPa 0,0 l/m 0 min 0 min 0 W/m 16,1 km/h (3 Bft) 95,74 %
13.03.2023 20:00 13,9 C 12,8 C 8,9 C 78 % 992,6 hPa 0,0 l/m 0 min 0 min 0 W/m 22,5 km/h (4 Bft) 95,74 %
13.03.2023 20:02 13,8 C 12,8 C 8,9 C 78 % 992,6 hPa 0,0 l/m 0 min 0 min 0 W/m 19,3 km/h (3 Bft) 95,65 %
13.03.2023 20:04 13,8 C 12,8 C 8,9 C 78 % 992,7 hPa 0,0 l/m 0 min 0 min 0 W/m 19,3 km/h (3 Bft) 95,74 %
13.03.2023 20:06 13,8 C 12,8 C 8,9 C 78 % 992,6 hPa 0,0 l/m 0 min 0 min 0 W/m 19,3 km/h (3 Bft) 97,87 %
13.03.2023 20:08 13,8 C 12,8 C 8,9 C 79 % 992,5 hPa 0,0 l/m 0 min 0 min 0 W/m 16,1 km/h (3 Bft) 93,62 %
13.03.2023 20:10 13,8 C 12,8 C 8,9 C 79 % 992,5 hPa 0,0 l/m 0 min 0 min 0 W/m 12,9 km/h (3 Bft) 95,74 %
13.03.2023 20:12 13,8 C 12,8 C 8,9 C 79 % 992,6 hPa 0,0 l/m 0 min 0 min 0 W/m 19,3 km/h (3 Bft) 93,62 %
13.03.2023 20:14 13,7 C 12,8 C 8,9 C 79 % 992,5 hPa 0,0 l/m 0 min 0 min 0 W/m 22,5 km/h (4 Bft) 95,74 %
13.03.2023 20:16 13,7 C 12,8 C 8,9 C 79 % 992,6 hPa 0,0 l/m 0 min 0 min 0 W/m 19,3 km/h (3 Bft) 95,65 %
13.03.2023 20:18 13,7 C 12,8 C 8,9 C 79 % 992,6 hPa 0,0 l/m 0 min 0 min 0 W/m 16,1 km/h (3 Bft) 95,74 %
13.03.2023 20:20 13,7 C 12,8 C 8,9 C 79 % 992,6 hPa 0,0 l/m 0 min 0 min 0 W/m 16,1 km/h (3 Bft) 95,74 %
13.03.2023 20:22 13,6 C 12,8 C 8,9 C 79 % 992,6 hPa 0,0 l/m 0 min 0 min 0 W/m 12,9 km/h (3 Bft) 93,62 %
13.03.2023 20:24 13,6 C 12,8 C 8,9 C 79 % 992,5 hPa 0,0 l/m 0 min 0 min 0 W/m 16,1 km/h (3 Bft) 95,74 %
13.03.2023 20:26 13,6 C 12,2 C 8,9 C 79 % 992,5 hPa 0,0 l/m 0 min 0 min 0 W/m 9,7 km/h (2 Bft) 95,74 %
13.03.2023 20:28 13,6 C 12,2 C 8,9 C 80 % 992,4 hPa 0,0 l/m 0 min 0 min 0 W/m 19,3 km/h (3 Bft) 93,48 %
13.03.2023 20:30 13,5 C 12,2 C 8,3 C 80 % 992,4 hPa 0,0 l/m 0 min 0 min 0 W/m 9,7 km/h (2 Bft) 97,87 %
13.03.2023 20:32 13,5 C 12,2 C 8,3 C 80 % 992,3 hPa 0,0 l/m 0 min 0 min 0 W/m 9,7 km/h (2 Bft) 97,87 %
13.03.2023 20:34 13,4 C 12,2 C 8,3 C 80 % 992,2 hPa 0,0 l/m 0 min 0 min 0 W/m 12,9 km/h (3 Bft) 97,73 %
13.03.2023 20:36 13,4 C 12,2 C 8,3 C 80 % 992,2 hPa 0,0 l/m 0 min 0 min 0 W/m 12,9 km/h (3 Bft) 95,74 %
13.03.2023 20:38 13,4 C 12,2 C 8,3 C 81 % 992,2 hPa 0,0 l/m 0 min 0 min 0 W/m 16,1 km/h (3 Bft) 94,00 %
13.03.2023 20:40 13,4 C 12,2 C 8,3 C 81 % 992,2 hPa 0,0 l/m 0 min 0 min 0 W/m 12,9 km/h (3 Bft) 97,87 %
13.03.2023 20:42 13,4 C 12,2 C 8,3 C 81 % 992,1 hPa 0,0 l/m 0 min 0 min 0 W/m 9,7 km/h (2 Bft) 97,83 %
13.03.2023 20:44 13,4 C 12,2 C 8,3 C 81 % 992,2 hPa 0,0 l/m 0 min 0 min 0 W/m 16,1 km/h (3 Bft) 97,87 %
13.03.2023 20:46 13,3 C 12,2 C 8,3 C 81 % 992,1 hPa 0,0 l/m 0 min 0 min 0 W/m 12,9 km/h (3 Bft) 97,87 %
13.03.2023 20:48 13,3 C 12,2 C 8,3 C 81 % 992,0 hPa 0,0 l/m 0 min 0 min 0 W/m 12,9 km/h (3 Bft) 97,87 %
13.03.2023 20:50 13,3 C 12,2 C 8,3 C 81 % 992,0 hPa 0,0 l/m 0 min 0 min 0 W/m 6,4 km/h (2 Bft) 100,00 %
13.03.2023 20:52 13,3 C 12,2 C 8,3 C 81 % 992,0 hPa 0,0 l/m 0 min 0 min 0 W/m 12,9 km/h (3 Bft) 95,74 %
13.03.2023 20:54 13,3 C 12,2 C 8,3 C 81 % 991,9 hPa 0,0 l/m 0 min 0 min 0 W/m 9,7 km/h (2 Bft) 100,00 %
13.03.2023 20:56 13,3 C 12,2 C 8,3 C 81 % 991,9 hPa 0,0 l/m 0 min 0 min 0 W/m 9,7 km/h (2 Bft) 97,83 %
13.03.2023 20:58 13,2 C 12,2 C 8,3 C 81 % 991,8 hPa 0,0 l/m 0 min 0 min 0 W/m 16,1 km/h (3 Bft) 97,87 %
13.03.2023 21:00 13,2 C 12,2 C 8,3 C 82 % 991,7 hPa 0,0 l/m 0 min 0 min 0 W/m 16,1 km/h (3 Bft) 97,87 %
13.03.2023 21:02 13,2 C 12,2 C 8,3 C 82 % 991,8 hPa 0,0 l/m 0 min 0 min 0 W/m 12,9 km/h (3 Bft) 97,87 %
13.03.2023 21:04 13,2 C 12,2 C 8,3 C 82 % 991,7 hPa 0,0 l/m 0 min 0 min 0 W/m 6,4 km/h (2 Bft) 100,00 %
13.03.2023 21:06 13,1 C 11,7 C 7,8 C 82 % 991,8 hPa 0,0 l/m 0 min 0 min 0 W/m 6,4 km/h (2 Bft) 100,00 %
13.03.2023 21:08 13,1 C 11,7 C 7,8 C 82 % 991,8 hPa 0,0 l/m 0 min 0 min 0 W/m 6,4 km/h (2 Bft) 97,87 %
13.03.2023 21:10 13,1 C 11,7 C 7,8 C 82 % 991,8 hPa 0,0 l/m 0 min 0 min 0 W/m 6,4 km/h (2 Bft) 97,83 %
13.03.2023 21:12 13,0 C 11,7 C 7,8 C 82 % 991,9 hPa 0,0 l/m 0 min 0 min 0 W/m 9,7 km/h (2 Bft) 100,00 %
13.03.2023 21:14 12,9 C 11,7 C 7,8 C 82 % 992,0 hPa 0,0 l/m 0 min 0 min 0 W/m 9,7 km/h (2 Bft) 100,00 %
13.03.2023 21:16 12,9 C 11,7 C 7,8 C 82 % 992,0 hPa 0,0 l/m 0 min 0 min 0 W/m 6,4 km/h (2 Bft) 100,00 %
13.03.2023 21:18 12,9 C 11,7 C 7,8 C 82 % 992,1 hPa 0,0 l/m 0 min 0 min 0 W/m 6,4 km/h (2 Bft) 100,00 %
13.03.2023 21:20 12,8 C 11,7 C 7,8 C 83 % 992,0 hPa 0,0 l/m 0 min 0 min 0 W/m 9,7 km/h (2 Bft) 100,00 %
13.03.2023 21:22 12,8 C 11,7 C 7,8 C 83 % 992,1 hPa 0,0 l/m 0 min 0 min 0 W/m 9,7 km/h (2 Bft) 100,00 %
13.03.2023 21:24 12,8 C 11,7 C 7,8 C 83 % 992,1 hPa 0,0 l/m 0 min 0 min 0 W/m 6,4 km/h (2 Bft) 97,87 %
13.03.2023 21:26 12,7 C 11,7 C 7,8 C 83 % 992,1 hPa 0,0 l/m 0 min 0 min 0 W/m 19,3 km/h (3 Bft) 97,87 %
13.03.2023 21:28 12,7 C 11,7 C 7,8 C 83 % 992,0 hPa 0,0 l/m 0 min 0 min 0 W/m 9,7 km/h (2 Bft) 100,00 %
13.03.2023 21:30 12,6 C 11,1 C 7,8 C 83 % 992,1 hPa 0,0 l/m 0 min 0 min 0 W/m 6,4 km/h (2 Bft) 97,87 %
13.03.2023 21:32 12,6 C 11,1 C 7,8 C 83 % 992,1 hPa 0,0 l/m 0 min 0 min 0 W/m 6,4 km/h (2 Bft) 100,00 %
13.03.2023 21:34 12,6 C 11,1 C 7,8 C 83 % 992,1 hPa 0,0 l/m 0 min 0 min 0 W/m 6,4 km/h (2 Bft) 97,83 %
13.03.2023 21:36 12,5 C 11,1 C 7,8 C 83 % 992,1 hPa 0,0 l/m 0 min 0 min 0 W/m 9,7 km/h (2 Bft) 97,87 %
13.03.2023 21:38 12,5 C 11,1 C 7,8 C 84 % 992,1 hPa 0,0 l/m 0 min 0 min 0 W/m 6,4 km/h (2 Bft) 100,00 %
13.03.2023 21:40 12,4 C 11,1 C 7,8 C 84 % 992,0 hPa 0,0 l/m 0 min 0 min 0 W/m 12,9 km/h (3 Bft) 97,87 %
13.03.2023 21:42 12,4 C 11,1 C 7,8 C 83 % 992,1 hPa 0,0 l/m 0 min 0 min 0 W/m 12,9 km/h (3 Bft) 98,00 %
13.03.2023 21:44 12,4 C 11,1 C 7,2 C 84 % 992,0 hPa 0,0 l/m 0 min 0 min 0 W/m 12,9 km/h (3 Bft) 100,00 %
13.03.2023 21:46 12,3 C 11,1 C 7,2 C 84 % 992,0 hPa 0,0 l/m 0 min 0 min 0 W/m 6,4 km/h (2 Bft) 97,87 %
13.03.2023 21:48 12,3 C 11,1 C 7,2 C 84 % 992,1 hPa 0,0 l/m 0 min 0 min 0 W/m 12,9 km/h (3 Bft) 100,00 %
13.03.2023 21:50 12,2 C 11,1 C 7,2 C 84 % 992,2 hPa 0,0 l/m 0 min 0 min 0 W/m 9,7 km/h (2 Bft) 97,83 %
13.03.2023 21:52 12,2 C 11,1 C 7,2 C 84 % 992,1 hPa 0,0 l/m 0 min 0 min 0 W/m 12,9 km/h (3 Bft) 95,74 %
13.03.2023 21:54 12,1 C 11,1 C 7,2 C 84 % 992,2 hPa 0,0 l/m 0 min 0 min 0 W/m 12,9 km/h (3 Bft) 93,62 %
13.03.2023 21:56 12,1 C 11,1 C 7,2 C 84 % 992,2 hPa 0,0 l/m 0 min 0 min 0 W/m 16,1 km/h (3 Bft) 95,74 %
13.03.2023 21:58 12,1 C 11,1 C 7,2 C 84 % 992,2 hPa 0,0 l/m 0 min 0 min 0 W/m 16,1 km/h (3 Bft) 95,74 %
13.03.2023 22:00 12,0 C 11,1 C 7,2 C 85 % 992,1 hPa 0,0 l/m 0 min 0 min 0 W/m 12,9 km/h (3 Bft) 97,87 %
13.03.2023 22:02 12,0 C 11,1 C 7,2 C 85 % 992,1 hPa 0,0 l/m 0 min 0 min 0 W/m 12,9 km/h (3 Bft) 91,49 %
13.03.2023 22:04 11,9 C 11,1 C 7,2 C 85 % 992,0 hPa 0,0 l/m 0 min 0 min 0 W/m 12,9 km/h (3 Bft) 93,48 %
13.03.2023 22:06 11,9 C 10,6 C 7,2 C 85 % 992,0 hPa 0,0 l/m 0 min 0 min 0 W/m 16,1 km/h (3 Bft) 92,59 %
13.03.2023 22:08 11,9 C 10,6 C 7,2 C 85 % 992,0 hPa 0,0 l/m 0 min 0 min 0 W/m 12,9 km/h (3 Bft) 95,74 %
13.03.2023 22:10 11,8 C 10,6 C 7,2 C 85 % 992,0 hPa 0,0 l/m 0 min 0 min 0 W/m 9,7 km/h (2 Bft) 91,43 %
13.03.2023 22:12 11,8 C 10,6 C 7,2 C 85 % 992,0 hPa 0,0 l/m 0 min 0 min 0 W/m 16,1 km/h (3 Bft) 93,62 %
13.03.2023 22:14 11,8 C 10,6 C 7,2 C 85 % 992,0 hPa 0,0 l/m 0 min 0 min 0 W/m 16,1 km/h (3 Bft) 96,55 %
13.03.2023 22:16 11,8 C 10,6 C 7,2 C 85 % 992,0 hPa 0,0 l/m 0 min 0 min 0 W/m 12,9 km/h (3 Bft) 91,43 %
13.03.2023 22:18 11,8 C 10,6 C 7,2 C 86 % 992,1 hPa 0,0 l/m 0 min 0 min 0 W/m 12,9 km/h (3 Bft) 93,22 %
13.03.2023 22:20 11,8 C 10,6 C 7,2 C 86 % 992,1 hPa 0,0 l/m 0 min 0 min 0 W/m 12,9 km/h (3 Bft) 97,14 %
13.03.2023 22:22 11,7 C 10,6 C 7,2 C 86 % 992,1 hPa 0,0 l/m 0 min 0 min 0 W/m 9,7 km/h (2 Bft) 93,62 %
13.03.2023 22:24 11,7 C 10,6 C 7,2 C 86 % 992,1 hPa 0,0 l/m 0 min 0 min 0 W/m 12,9 km/h (3 Bft) 97,92 %
13.03.2023 22:26 11,7 C 10,6 C 7,2 C 86 % 992,0 hPa 0,0 l/m 0 min 0 min 0 W/m 12,9 km/h (3 Bft) 95,83 %
13.03.2023 22:28 11,7 C 11,1 C 7,2 C 86 % 992,0 hPa 0,0 l/m 0 min 0 min 0 W/m 19,3 km/h (3 Bft) 95,65 %
13.03.2023 22:30 11,7 C 11,1 C 7,2 C 86 % 991,9 hPa 0,0 l/m 0 min 0 min 0 W/m 19,3 km/h (3 Bft) 97,87 %
13.03.2023 22:32 11,7 C 11,1 C 7,2 C 86 % 991,9 hPa 0,0 l/m 0 min 0 min 0 W/m 12,9 km/h (3 Bft) 94,00 %
13.03.2023 22:34 11,7 C 11,1 C 7,2 C 86 % 991,8 hPa 0,0 l/m 0 min 0 min 0 W/m 12,9 km/h (3 Bft) 93,62 %
13.03.2023 22:36 11,8 C 11,1 C 7,2 C 86 % 991,8 hPa 0,0 l/m 0 min 0 min 0 W/m 16,1 km/h (3 Bft) 95,74 %
13.03.2023 22:38 11,7 C 11,1 C 7,2 C 86 % 991,9 hPa 0,0 l/m 0 min 0 min 0 W/m 16,1 km/h (3 Bft) 93,62 %
13.03.2023 22:40 11,8 C 11,1 C 7,2 C 86 % 991,9 hPa 0,0 l/m 0 min 0 min 0 W/m 22,5 km/h (4 Bft) 93,62 %
13.03.2023 22:42 11,8 C 11,1 C 7,2 C 86 % 992,0 hPa 0,0 l/m 0 min 0 min 0 W/m 32,2 km/h (5 Bft) 95,74 %
13.03.2023 22:44 11,8 C 11,1 C 7,2 C 86 % 991,8 hPa 0,0 l/m 0 min 0 min 0 W/m 19,3 km/h (3 Bft) 95,65 %
13.03.2023 22:46 11,8 C 11,1 C 7,2 C 86 % 991,7 hPa 0,0 l/m 0 min 0 min 0 W/m 22,5 km/h (4 Bft) 95,74 %
13.03.2023 22:48 11,8 C 11,1 C 7,2 C 86 % 991,6 hPa 0,0 l/m 0 min 0 min 0 W/m 19,3 km/h (3 Bft) 95,74 %
13.03.2023 22:50 11,7 C 11,1 C 7,2 C 86 % 991,7 hPa 0,0 l/m 0 min 0 min 0 W/m 12,9 km/h (3 Bft) 93,62 %
13.03.2023 22:52 11,7 C 11,1 C 7,2 C 86 % 991,7 hPa 0,0 l/m 0 min 0 min 0 W/m 22,5 km/h (4 Bft) 89,36 %
13.03.2023 22:54 11,7 C 11,1 C 7,2 C 86 % 991,6 hPa 0,0 l/m 0 min 0 min 0 W/m 25,7 km/h (4 Bft) 95,74 %
13.03.2023 22:56 11,7 C 11,1 C 7,2 C 86 % 991,6 hPa 0,0 l/m 0 min 0 min 0 W/m 22,5 km/h (4 Bft) 97,87 %
13.03.2023 22:58 11,7 C 10,6 C 7,2 C 86 % 991,6 hPa 0,0 l/m 0 min 0 min 0 W/m 12,9 km/h (3 Bft) 95,65 %
13.03.2023 23:00 11,7 C 10,6 C 7,2 C 86 % 991,6 hPa 0,0 l/m 0 min 0 min 0 W/m 19,3 km/h (3 Bft) 97,87 %
13.03.2023 23:02 11,7 C 10,6 C 7,2 C 86 % 991,6 hPa 0,0 l/m 0 min 0 min 0 W/m 25,7 km/h (4 Bft) 95,74 %
13.03.2023 23:04 11,7 C 10,6 C 7,2 C 86 % 991,6 hPa 0,0 l/m 0 min 0 min 0 W/m 16,1 km/h (3 Bft) 95,74 %
13.03.2023 23:06 11,7 C 10,6 C 7,2 C 86 % 991,8 hPa 0,0 l/m 0 min 0 min 0 W/m 16,1 km/h (3 Bft) 44,74 %
13.03.2023 23:08 11,7 C 10,6 C 7,2 C 86 % 991,8 hPa 0,0 l/m 0 min 0 min 0 W/m 19,3 km/h (3 Bft) 97,22 %
13.03.2023 23:10 11,7 C 10,6 C 7,2 C 86 % 991,9 hPa 0,0 l/m 0 min 0 min 0 W/m 12,9 km/h (3 Bft) 97,83 %
13.03.2023 23:12 11,6 C 10,6 C 7,2 C 86 % 992,0 hPa 0,0 l/m 0 min 0 min 0 W/m 16,1 km/h (3 Bft) 96,00 %
13.03.2023 23:14 11,6 C 10,6 C 7,2 C 86 % 992,1 hPa 0,0 l/m 0 min 0 min 0 W/m 16,1 km/h (3 Bft) 100,00 %
13.03.2023 23:16 11,6 C 10,6 C 7,2 C 86 % 992,1 hPa 0,0 l/m 0 min 0 min 0 W/m 22,5 km/h (4 Bft) 97,87 %
13.03.2023 23:18 11,6 C 10,6 C 7,2 C 86 % 992,1 hPa 0,0 l/m 0 min 0 min 0 W/m 22,5 km/h (4 Bft) 100,00 %
13.03.2023 23:20 11,6 C 10,6 C 7,2 C 86 % 992,1 hPa 0,0 l/m 0 min 0 min 0 W/m 19,3 km/h (3 Bft) 100,00 %
13.03.2023 23:22 11,6 C 10,6 C 7,2 C 86 % 991,9 hPa 0,0 l/m 0 min 0 min 0 W/m 22,5 km/h (4 Bft) 100,00 %
13.03.2023 23:24 11,5 C 10,6 C 7,2 C 85 % 991,9 hPa 0,0 l/m 0 min 0 min 0 W/m 22,5 km/h (4 Bft) 100,00 %
13.03.2023 23:26 11,5 C 10,6 C 7,2 C 85 % 992,0 hPa 0,0 l/m 0 min 0 min 0 W/m 25,7 km/h (4 Bft) 100,00 %
13.03.2023 23:28 11,5 C 10,6 C 7,2 C 85 % 992,0 hPa 0,0 l/m 0 min 0 min 0 W/m 16,1 km/h (3 Bft) 100,00 %
13.03.2023 23:30 11,4 C 10,6 C 6,7 C 85 % 992,1 hPa 0,0 l/m 0 min 0 min 0 W/m 19,3 km/h (3 Bft) 97,87 %
13.03.2023 23:32 11,4 C 10,6 C 6,7 C 86 % 992,0 hPa 0,0 l/m 0 min 0 min 0 W/m 25,7 km/h (4 Bft) 100,00 %
13.03.2023 23:34 11,4 C 10,6 C 7,2 C 86 % 992,0 hPa 0,0 l/m 0 min 0 min 0 W/m 32,2 km/h (5 Bft) 97,87 %
13.03.2023 23:36 11,4 C 10,6 C 6,7 C 86 % 991,9 hPa 0,0 l/m 0 min 0 min 0 W/m 22,5 km/h (4 Bft) 100,00 %
13.03.2023 23:38 11,4 C 10,6 C 6,7 C 86 % 991,9 hPa 0,0 l/m 0 min 0 min 0 W/m 22,5 km/h (4 Bft) 97,87 %
13.03.2023 23:40 11,4 C 10,6 C 6,7 C 86 % 991,9 hPa 0,0 l/m 0 min 0 min 0 W/m 16,1 km/h (3 Bft) 97,87 %
13.03.2023 23:42 11,4 C 10,6 C 6,7 C 86 % 992,0 hPa 0,0 l/m 0 min 0 min 0 W/m 12,9 km/h (3 Bft) 97,87 %
13.03.2023 23:44 11,3 C 10,6 C 6,7 C 86 % 992,0 hPa 0,0 l/m 0 min 0 min 0 W/m 19,3 km/h (3 Bft) 97,87 %
13.03.2023 23:46 11,3 C 10,6 C 6,7 C 86 % 991,9 hPa 0,0 l/m 0 min 0 min 0 W/m 16,1 km/h (3 Bft) 97,87 %
13.03.2023 23:48 11,3 C 10,6 C 6,7 C 86 % 991,8 hPa 0,0 l/m 0 min 0 min 0 W/m 22,5 km/h (4 Bft) 97,83 %
13.03.2023 23:50 11,3 C 10,6 C 6,7 C 86 % 991,8 hPa 0,0 l/m 0 min 0 min 0 W/m 12,9 km/h (3 Bft) 97,87 %
13.03.2023 23:52 11,3 C 10,6 C 6,7 C 86 % 991,9 hPa 0,0 l/m 0 min 0 min 0 W/m 19,3 km/h (3 Bft) 97,87 %
13.03.2023 23:54 11,2 C 10,6 C 6,7 C 86 % 991,9 hPa 0,0 l/m 0 min 0 min 0 W/m 19,3 km/h (3 Bft) 97,87 %
13.03.2023 23:56 11,2 C 10,6 C 6,7 C 86 % 991,9 hPa 0,0 l/m 0 min 0 min 0 W/m 22,5 km/h (4 Bft) 97,92 %
13.03.2023 23:58 11,2 C 10,6 C 6,7 C 86 % 991,8 hPa 0,0 l/m 0 min 0 min 0 W/m 32,2 km/h (5 Bft) 95,74 %
_ Min-Zeit 03:06 02:40 01:40 14:26 22:48 - - - - 01:38 23:06
Minimum _ 10,3 C 8,9 C 5,0 C 69 % 991,6 hPa - - - - 6,4 km/h (2 Bft) 44,74 %
_ Max-Zeit 14:36 13:12 12:28 03:40 00:00 02:34 12:12 00:52 12:42 11:40 00:42
Maximum _ 18,0 C 20,6 C 14,4 C 96 % 1006,0 hPa 0,2 l/m 4 min 2 min 811 W/m 70,8 km/h
SW (8 Bft)
100,00 %
Durchschnitt _ 13,6 C 13,2 C 9,0 C 83 % 997,4 hPa #1,2 l/m #3:03 h #1:22 h 182 W/m 28,6 km/h (4 Bft) 97,07 %
© 2023 W. Hausmann